Time,TemperatureF,DewpointF,PressureIn,WindDirection,WindDirectionDegrees,WindSpeedMPH,WindSpeedGustMPH,Humidity,HourlyPrecipIn,Conditions,Clouds,dailyrainin,SoftwareType,DateUTC
2013-02-16 00:00:00,45.3,29.6,30.35,North,11,7.4,11.6,54,0.00,,SKC,0.00,VWS V14.01,2013-02-16 06:00:00,
2013-02-16 00:02:00,45.3,29.5,30.35,NNE,16,6.9,7.4,54,0.00,,SKC,0.00,VWS V14.01,2013-02-16 06:02:00,
2013-02-16 00:03:00,45.3,29.5,30.35,NNE,16,6.9,7.4,54,0.00,,SKC,0.00,VWS V14.01,2013-02-16 06:03:00,
2013-02-16 00:04:00,45.1,29.4,30.35,NNE,15,8.5,8.5,54,0.00,,SKC,0.00,VWS V14.01,2013-02-16 06:04:00,
2013-02-16 00:06:00,45.1,29.3,30.35,NNE,23,8.5,8.5,54,0.00,,SKC,0.00,VWS V14.01,2013-02-16 06:06:00,
2013-02-16 00:08:00,45.1,29.3,30.35,NNE,23,8.5,8.5,54,0.00,,SKC,0.00,VWS V14.01,2013-02-16 06:08:00,
2013-02-16 00:10:00,44.8,29.1,30.35,NNE,18,10.3,10.3,54,0.00,,SKC,0.00,VWS V14.01,2013-02-16 06:10:00,
2013-02-16 00:12:00,44.8,29.2,30.35,NNE,27,8.7,10.3,54,0.00,,SKC,0.00,VWS V14.01,2013-02-16 06:12:00,
2013-02-16 00:13:00,44.8,29.2,30.35,NNE,27,8.7,10.3,54,0.00,,SKC,0.00,VWS V14.01,2013-02-16 06:13:00,
2013-02-16 00:14:00,44.8,29.2,30.35,NNE,16,7.6,8.7,54,0.00,,SKC,0.00,VWS V14.01,2013-02-16 06:14:00,
2013-02-16 00:16:00,44.6,29.1,30.35,North,4,7.4,7.6,54,0.00,,SKC,0.00,VWS V14.01,2013-02-16 06:16:00,
2013-02-16 00:18:00,44.6,29.1,30.35,North,4,7.4,7.6,54,0.00,,SKC,0.00,VWS V14.01,2013-02-16 06:18:00,
2013-02-16 00:20:00,44.4,29.1,30.35,North,8,8.3,10.3,54,0.00,,SKC,0.00,VWS V14.01,2013-02-16 06:20:00,
2013-02-16 00:22:00,44.2,28.8,30.35,North,10,9.2,9.2,54,0.00,,SKC,0.00,VWS V14.01,2013-02-16 06:22:00,
2013-02-16 00:23:00,44.2,28.8,30.35,North,10,9.2,9.2,54,0.00,,SKC,0.00,VWS V14.01,2013-02-16 06:23:00,
2013-02-16 00:24:00,44.2,28.7,30.35,NNE,14,8.7,9.2,54,0.00,,SKC,0.00,VWS V14.01,2013-02-16 06:24:00,
2013-02-16 00:26:00,44.2,28.8,30.35,North,10,9.0,9.0,54,0.00,,SKC,0.00,VWS V14.01,2013-02-16 06:26:00,
2013-02-16 00:28:00,44.2,28.8,30.35,North,10,9.0,9.0,54,0.00,,SKC,0.00,VWS V14.01,2013-02-16 06:28:00,
2013-02-16 00:30:00,44.2,28.4,30.35,NNE,20,6.9,7.8,54,0.00,,SKC,0.00,VWS V14.01,2013-02-16 06:30:00,
2013-02-16 00:32:00,44.2,28.2,30.35,NNE,22,9.6,9.6,53,0.00,,SKC,0.00,VWS V14.01,2013-02-16 06:32:00,
2013-02-16 00:33:00,44.2,28.2,30.35,NNE,22,9.6,9.6,53,0.00,,SKC,0.00,VWS V14.01,2013-02-16 06:33:00,
2013-02-16 00:34:00,44.2,28.7,30.35,NNE,24,5.4,9.6,54,0.00,,SKC,0.00,VWS V14.01,2013-02-16 06:34:00,
2013-02-16 00:36:00,44.1,28.1,30.35,NNE,26,6.0,6.0,53,0.00,,SKC,0.00,VWS V14.01,2013-02-16 06:36:00,
2013-02-16 00:38:00,44.1,28.1,30.35,NNE,26,6.0,6.0,53,0.00,,SKC,0.00,VWS V14.01,2013-02-16 06:38:00,
2013-02-16 00:40:00,44.1,28.0,30.35,NNE,19,7.2,7.2,53,0.00,,SKC,0.00,VWS V14.01,2013-02-16 06:40:00,
2013-02-16 00:42:00,44.1,27.8,30.35,NNE,16,9.0,9.0,52,0.00,,SKC,0.00,VWS V14.01,2013-02-16 06:42:00,
2013-02-16 00:43:00,44.1,27.8,30.35,NNE,16,9.0,9.0,52,0.00,,SKC,0.00,VWS V14.01,2013-02-16 06:43:00,
2013-02-16 00:44:00,44.1,27.9,30.35,NNE,18,6.5,9.0,53,0.00,,SKC,0.00,VWS V14.01,2013-02-16 06:44:00,
2013-02-16 00:46:00,43.9,27.7,30.35,NE,38,7.2,7.2,53,0.00,,SKC,0.00,VWS V14.01,2013-02-16 06:46:00,
2013-02-16 00:48:00,43.9,27.7,30.35,NE,38,7.2,7.2,53,0.00,,SKC,0.00,VWS V14.01,2013-02-16 06:48:00,
2013-02-16 00:50:00,43.9,27.7,30.35,NE,35,7.6,7.6,53,0.00,,SKC,0.00,VWS V14.01,2013-02-16 06:50:00,
2013-02-16 00:52:00,43.7,27.6,30.35,NNE,19,5.8,7.6,53,0.00,,SKC,0.00,VWS V14.01,2013-02-16 06:52:00,
2013-02-16 00:53:00,43.7,27.6,30.35,NNE,19,5.8,7.6,53,0.00,,SKC,0.00,VWS V14.01,2013-02-16 06:53:00,
2013-02-16 00:54:00,43.7,27.7,30.35,North,7,7.6,7.6,53,0.00,,SKC,0.00,VWS V14.01,2013-02-16 06:54:00,
2013-02-16 00:56:00,43.5,27.5,30.35,NNE,23,8.1,8.1,53,0.00,,SKC,0.00,VWS V14.01,2013-02-16 06:56:00,
2013-02-16 00:58:00,43.5,27.5,30.35,NNE,23,8.1,8.1,53,0.00,,SKC,0.00,VWS V14.01,2013-02-16 06:58:00,
2013-02-16 01:00:00,43.5,27.8,30.36,NNE,19,6.5,6.5,54,0.00,,SKC,0.00,VWS V14.01,2013-02-16 07:00:00,
2013-02-16 01:02:00,43.5,27.6,30.36,NNE,23,6.7,6.7,53,0.00,,SKC,0.00,VWS V14.01,2013-02-16 07:02:00,
2013-02-16 01:03:00,43.5,27.6,30.36,NNE,23,6.7,6.7,53,0.00,,SKC,0.00,VWS V14.01,2013-02-16 07:03:00,
2013-02-16 01:04:00,43.5,27.6,30.35,NNE,25,6.5,6.7,53,0.00,,SKC,0.00,VWS V14.01,2013-02-16 07:04:00,
2013-02-16 01:06:00,43.5,27.8,30.35,North,9,6.3,6.3,54,0.00,,SKC,0.00,VWS V14.01,2013-02-16 07:06:00,
2013-02-16 01:08:00,43.5,27.8,30.35,North,9,6.3,6.3,54,0.00,,SKC,0.00,VWS V14.01,2013-02-16 07:08:00,
2013-02-16 01:10:00,43.5,27.8,30.36,NNE,21,6.7,6.7,54,0.00,,SKC,0.00,VWS V14.01,2013-02-16 07:10:00,
2013-02-16 01:12:00,43.3,27.8,30.36,NNE,17,5.8,6.7,54,0.00,,SKC,0.00,VWS V14.01,2013-02-16 07:12:00,
2013-02-16 01:13:00,43.5,27.8,30.36,NNE,21,6.7,6.7,54,0.00,,SKC,0.00,VWS V14.01,2013-02-16 07:13:00,
2013-02-16 01:14:00,43.3,27.7,30.36,NNE,18,6.0,6.0,54,0.00,,SKC,0.00,VWS V14.01,2013-02-16 07:14:00,
2013-02-16 01:16:00,43.3,27.8,30.36,NNE,30,5.8,6.0,54,0.00,,SKC,0.00,VWS V14.01,2013-02-16 07:16:00,
2013-02-16 01:18:00,43.3,27.8,30.36,NNE,30,5.8,6.0,54,0.00,,SKC,0.00,VWS V14.01,2013-02-16 07:18:00,
2013-02-16 01:20:00,43.2,27.8,30.36,NNE,15,6.0,7.2,54,0.00,,SKC,0.00,VWS V14.01,2013-02-16 07:20:00,
2013-02-16 01:22:00,43.2,27.7,30.36,North,9,5.1,6.0,54,0.00,,SKC,0.00,VWS V14.01,2013-02-16 07:22:00,
2013-02-16 01:23:00,43.2,27.7,30.36,North,9,5.1,6.0,54,0.00,,SKC,0.00,VWS V14.01,2013-02-16 07:23:00,
2013-02-16 01:24:00,43.2,27.8,30.36,NNE,12,4.3,5.1,54,0.00,,SKC,0.00,VWS V14.01,2013-02-16 07:24:00,
2013-02-16 01:26:00,43.2,27.5,30.36,NNE,17,4.9,4.9,54,0.00,,SKC,0.00,VWS V14.01,2013-02-16 07:26:00,
2013-02-16 01:28:00,43.2,27.5,30.36,NNE,17,4.9,4.9,54,0.00,,SKC,0.00,VWS V14.01,2013-02-16 07:28:00,
2013-02-16 01:30:00,43.0,27.2,30.36,NNE,22,6.0,6.0,53,0.00,,SKC,0.00,VWS V14.01,2013-02-16 07:30:00,
2013-02-16 01:32:00,43.0,27.5,30.36,NNE,13,4.3,6.0,54,0.00,,SKC,0.00,VWS V14.01,2013-02-16 07:32:00,
2013-02-16 01:33:00,43.0,27.5,30.36,NNE,13,4.3,6.0,54,0.00,,SKC,0.00,VWS V14.01,2013-02-16 07:33:00,
2013-02-16 01:34:00,43.0,27.6,30.36,NNE,14,4.7,4.7,54,0.00,,SKC,0.00,VWS V14.01,2013-02-16 07:34:00,
2013-02-16 01:36:00,42.8,27.8,30.36,North,357,4.5,4.7,55,0.00,,SKC,0.00,VWS V14.01,2013-02-16 07:36:00,
2013-02-16 01:38:00,42.8,27.8,30.36,North,357,4.5,4.7,55,0.00,,SKC,0.00,VWS V14.01,2013-02-16 07:38:00,
2013-02-16 01:40:00,42.6,27.4,30.35,NNE,24,4.7,5.1,55,0.00,,SKC,0.00,VWS V14.01,2013-02-16 07:40:00,
2013-02-16 01:42:00,42.4,27.6,30.35,NNE,14,3.6,4.7,55,0.00,,SKC,0.00,VWS V14.01,2013-02-16 07:42:00,
2013-02-16 01:43:00,42.6,27.4,30.35,NNE,24,4.7,5.1,55,0.00,,SKC,0.00,VWS V14.01,2013-02-16 07:43:00,
2013-02-16 01:44:00,42.3,27.6,30.35,North,11,4.3,4.3,56,0.00,,SKC,0.00,VWS V14.01,2013-02-16 07:44:00,
2013-02-16 01:46:00,42.3,27.4,30.35,North,7,3.8,4.3,55,0.00,,SKC,0.00,VWS V14.01,2013-02-16 07:46:00,
2013-02-16 01:48:00,42.3,27.4,30.35,North,7,3.8,4.3,55,0.00,,SKC,0.00,VWS V14.01,2013-02-16 07:48:00,
2013-02-16 01:50:00,42.1,27.4,30.35,North,353,3.4,3.8,56,0.00,,SKC,0.00,VWS V14.01,2013-02-16 07:50:00,
2013-02-16 01:52:00,41.9,27.3,30.35,North,2,3.1,3.4,56,0.00,,SKC,0.00,VWS V14.01,2013-02-16 07:52:00,
2013-02-16 01:53:00,42.1,27.4,30.35,North,353,3.4,3.8,56,0.00,,SKC,0.00,VWS V14.01,2013-02-16 07:53:00,
2013-02-16 01:54:00,41.7,27.4,30.35,North,351,3.4,3.4,56,0.00,,SKC,0.00,VWS V14.01,2013-02-16 07:54:00,
2013-02-16 01:56:00,41.7,27.3,30.35,North,5,3.8,3.8,56,0.00,,SKC,0.00,VWS V14.01,2013-02-16 07:56:00,
2013-02-16 01:58:00,41.7,27.3,30.35,North,5,3.8,3.8,56,0.00,,SKC,0.00,VWS V14.01,2013-02-16 07:58:00,
2013-02-16 02:00:00,41.5,27.5,30.35,North,0,4.0,4.7,57,0.00,,SKC,0.00,VWS V14.01,2013-02-16 08:00:00,
2013-02-16 02:02:00,41.4,27.4,30.35,North,351,3.6,4.0,57,0.00,,SKC,0.00,VWS V14.01,2013-02-16 08:02:00,
2013-02-16 02:03:00,41.5,27.5,30.35,North,0,4.0,4.7,57,0.00,,SKC,0.00,VWS V14.01,2013-02-16 08:03:00,
2013-02-16 02:04:00,41.4,27.4,30.35,North,354,3.6,3.6,57,0.00,,SKC,0.00,VWS V14.01,2013-02-16 08:04:00,
2013-02-16 02:06:00,41.2,27.3,30.35,North,351,2.0,3.6,57,0.00,,SKC,0.00,VWS V14.01,2013-02-16 08:06:00,
2013-02-16 02:08:00,41.2,27.3,30.35,North,351,2.0,3.6,57,0.00,,SKC,0.00,VWS V14.01,2013-02-16 08:08:00,
2013-02-16 02:10:00,41.2,27.2,30.35,North,355,3.1,3.4,57,0.00,,SKC,0.00,VWS V14.01,2013-02-16 08:10:00,
2013-02-16 02:12:00,41.0,27.2,30.35,NNW,344,2.2,3.1,58,0.00,,SKC,0.00,VWS V14.01,2013-02-16 08:12:00,
2013-02-16 02:13:00,41.2,27.2,30.35,North,355,3.1,3.4,57,0.00,,SKC,0.00,VWS V14.01,2013-02-16 08:13:00,
2013-02-16 02:14:00,41.0,27.2,30.35,North,352,2.7,2.7,58,0.00,,SKC,0.00,VWS V14.01,2013-02-16 08:14:00,
2013-02-16 02:16:00,40.8,27.1,30.35,NW,325,2.2,2.7,58,0.00,,SKC,0.00,VWS V14.01,2013-02-16 08:16:00,
2013-02-16 02:18:00,40.8,27.1,30.35,NW,325,2.2,2.7,58,0.00,,SKC,0.00,VWS V14.01,2013-02-16 08:18:00,
2013-02-16 02:20:00,40.6,27.0,30.35,NW,314,2.7,2.7,58,0.00,,SKC,0.00,VWS V14.01,2013-02-16 08:20:00,
2013-02-16 02:22:00,40.6,27.0,30.35,NNW,327,1.8,2.7,58,0.00,,SKC,0.00,VWS V14.01,2013-02-16 08:22:00,
2013-02-16 02:23:00,40.6,27.0,30.35,NW,314,2.7,2.7,58,0.00,,SKC,0.00,VWS V14.01,2013-02-16 08:23:00,
2013-02-16 02:24:00,40.6,26.9,30.35,NW,324,2.7,2.7,58,0.00,,SKC,0.00,VWS V14.01,2013-02-16 08:24:00,
2013-02-16 02:26:00,40.6,26.8,30.35,NNW,342,2.9,2.9,57,0.00,,SKC,0.00,VWS V14.01,2013-02-16 08:26:00,
2013-02-16 02:28:00,40.6,26.8,30.35,NNW,342,2.9,2.9,57,0.00,,SKC,0.00,VWS V14.01,2013-02-16 08:28:00,
2013-02-16 02:30:00,40.6,26.8,30.35,NNW,342,1.8,2.7,58,0.00,,SKC,0.00,VWS V14.01,2013-02-16 08:30:00,
2013-02-16 02:32:00,40.5,26.7,30.35,NNW,327,1.8,1.8,58,0.00,,SKC,0.00,VWS V14.01,2013-02-16 08:32:00,
2013-02-16 02:33:00,40.5,26.7,30.35,NNW,327,1.8,1.8,58,0.00,,SKC,0.00,VWS V14.01,2013-02-16 08:33:00,
2013-02-16 02:34:00,40.5,26.9,30.35,NNW,341,1.8,1.8,58,0.00,,SKC,0.00,VWS V14.01,2013-02-16 08:34:00,
2013-02-16 02:36:00,40.3,26.8,30.35,NNW,337,2.0,2.0,58,0.00,,SKC,0.00,VWS V14.01,2013-02-16 08:36:00,
2013-02-16 02:38:00,40.3,26.8,30.35,NNW,337,2.0,2.0,58,0.00,,SKC,0.00,VWS V14.01,2013-02-16 08:38:00,
2013-02-16 02:40:00,40.1,26.9,30.35,NW,325,2.2,2.2,59,0.00,,SKC,0.00,VWS V14.01,2013-02-16 08:40:00,
2013-02-16 02:42:00,39.9,26.8,30.35,NW,316,2.2,2.2,59,0.00,,SKC,0.00,VWS V14.01,2013-02-16 08:42:00,
2013-02-16 02:43:00,40.1,26.9,30.35,NW,325,2.2,2.2,59,0.00,,SKC,0.00,VWS V14.01,2013-02-16 08:43:00,
2013-02-16 02:44:00,39.9,26.9,30.36,WNW,290,2.0,2.2,59,0.00,,SKC,0.00,VWS V14.01,2013-02-16 08:44:00,
2013-02-16 02:46:00,39.7,26.8,30.36,NW,307,1.6,2.0,60,0.00,,SKC,0.00,VWS V14.01,2013-02-16 08:46:00,
2013-02-16 02:48:00,39.7,26.8,30.36,NW,307,1.6,2.0,60,0.00,,SKC,0.00,VWS V14.01,2013-02-16 08:48:00,
2013-02-16 02:50:00,39.6,26.8,30.36,NW,325,1.8,2.0,60,0.00,,SKC,0.00,VWS V14.01,2013-02-16 08:50:00,
2013-02-16 02:52:00,39.6,26.9,30.36,NW,317,2.0,2.0,60,0.00,,SKC,0.00,VWS V14.01,2013-02-16 08:52:00,
2013-02-16 02:53:00,39.6,26.8,30.36,NW,325,1.8,2.0,60,0.00,,SKC,0.00,VWS V14.01,2013-02-16 08:53:00,
2013-02-16 02:54:00,39.4,26.7,30.36,NW,317,2.7,2.7,60,0.00,,SKC,0.00,VWS V14.01,2013-02-16 08:54:00,
2013-02-16 02:56:00,39.4,26.8,30.36,WNW,298,2.0,2.7,60,0.00,,SKC,0.00,VWS V14.01,2013-02-16 08:56:00,
2013-02-16 02:58:00,39.4,26.8,30.36,WNW,298,2.0,2.7,60,0.00,,SKC,0.00,VWS V14.01,2013-02-16 08:58:00,
2013-02-16 03:00:00,38.8,26.8,30.36,WNW,294,1.6,1.6,62,0.00,,SKC,0.00,VWS V14.01,2013-02-16 09:00:00,
2013-02-16 03:02:00,38.7,26.7,30.36,NW,317,2.5,2.5,62,0.00,,SKC,0.00,VWS V14.01,2013-02-16 09:02:00,
2013-02-16 03:03:00,38.7,26.7,30.36,NW,317,2.5,2.5,62,0.00,,SKC,0.00,VWS V14.01,2013-02-16 09:03:00,
2013-02-16 03:04:00,38.7,26.6,30.36,NW,319,1.8,2.5,62,0.00,,SKC,0.00,VWS V14.01,2013-02-16 09:04:00,
2013-02-16 03:06:00,38.8,26.8,30.36,NNW,337,2.5,2.5,62,0.00,,SKC,0.00,VWS V14.01,2013-02-16 09:06:00,
2013-02-16 03:08:00,38.8,26.8,30.36,NNW,337,2.5,2.5,62,0.00,,SKC,0.00,VWS V14.01,2013-02-16 09:08:00,
2013-02-16 03:10:00,38.8,26.8,30.36,NW,324,1.3,1.8,62,0.00,,SKC,0.00,VWS V14.01,2013-02-16 09:10:00,
2013-02-16 03:12:00,38.8,26.7,30.37,NW,312,1.3,1.3,61,0.00,,SKC,0.00,VWS V14.01,2013-02-16 09:12:00,
2013-02-16 03:13:00,38.8,26.8,30.36,NW,324,1.3,1.8,62,0.00,,SKC,0.00,VWS V14.01,2013-02-16 09:13:00,
2013-02-16 03:14:00,38.7,26.6,30.36,NW,315,1.8,1.8,62,0.00,,SKC,0.00,VWS V14.01,2013-02-16 09:14:00,
2013-02-16 03:16:00,38.7,26.5,30.36,NW,311,2.5,2.5,61,0.00,,SKC,0.00,VWS V14.01,2013-02-16 09:16:00,
2013-02-16 03:18:00,38.7,26.5,30.36,NW,311,2.5,2.5,61,0.00,,SKC,0.00,VWS V14.01,2013-02-16 09:18:00,
2013-02-16 03:20:00,38.8,26.6,30.37,NW,315,1.8,2.0,61,0.00,,SKC,0.00,VWS V14.01,2013-02-16 09:20:00,
2013-02-16 03:22:00,38.8,26.7,30.37,NW,317,2.0,2.0,61,0.00,,SKC,0.00,VWS V14.01,2013-02-16 09:22:00,
2013-02-16 03:23:00,38.8,26.7,30.37,NW,317,2.0,2.0,61,0.00,,SKC,0.00,VWS V14.01,2013-02-16 09:23:00,
2013-02-16 03:24:00,38.7,26.5,30.37,NW,320,2.5,2.5,61,0.00,,SKC,0.00,VWS V14.01,2013-02-16 09:24:00,
2013-02-16 03:26:00,38.7,26.5,30.37,North,355,2.2,2.5,61,0.00,,SKC,0.00,VWS V14.01,2013-02-16 09:26:00,
2013-02-16 03:28:00,38.7,26.5,30.37,North,355,2.2,2.5,61,0.00,,SKC,0.00,VWS V14.01,2013-02-16 09:28:00,
2013-02-16 03:30:00,38.7,26.8,30.37,NNE,13,4.0,4.0,62,0.00,,SKC,0.00,VWS V14.01,2013-02-16 09:30:00,
2013-02-16 03:32:00,38.5,26.8,30.37,North,356,2.7,4.0,62,0.00,,SKC,0.00,VWS V14.01,2013-02-16 09:32:00,
2013-02-16 03:33:00,38.7,26.8,30.37,NNE,13,4.0,4.0,62,0.00,,SKC,0.00,VWS V14.01,2013-02-16 09:33:00,
2013-02-16 03:34:00,38.3,26.7,30.37,North,358,4.3,4.3,63,0.00,,SKC,0.00,VWS V14.01,2013-02-16 09:34:00,
2013-02-16 03:36:00,38.3,26.8,30.37,NNW,343,2.7,4.3,63,0.00,,SKC,0.00,VWS V14.01,2013-02-16 09:36:00,
2013-02-16 03:38:00,38.3,26.8,30.37,NNW,343,2.7,4.3,63,0.00,,SKC,0.00,VWS V14.01,2013-02-16 09:38:00,
2013-02-16 03:40:00,38.3,26.7,30.37,NNW,339,2.2,2.9,63,0.00,,SKC,0.00,VWS V14.01,2013-02-16 09:40:00,
2013-02-16 03:42:00,38.3,26.6,30.37,North,353,3.6,3.6,62,0.00,,SKC,0.00,VWS V14.01,2013-02-16 09:42:00,
2013-02-16 03:43:00,38.3,26.7,30.37,NNW,339,2.2,2.9,63,0.00,,SKC,0.00,VWS V14.01,2013-02-16 09:43:00,
2013-02-16 03:44:00,38.3,26.7,30.37,NNW,348,3.8,3.8,63,0.00,,SKC,0.00,VWS V14.01,2013-02-16 09:44:00,
2013-02-16 03:46:00,38.3,26.7,30.37,North,353,4.0,4.0,63,0.00,,SKC,0.00,VWS V14.01,2013-02-16 09:46:00,
2013-02-16 03:48:00,38.3,26.7,30.37,North,353,4.0,4.0,63,0.00,,SKC,0.00,VWS V14.01,2013-02-16 09:48:00,
2013-02-16 03:50:00,38.5,26.7,30.36,North,5,4.5,5.1,62,0.00,,SKC,0.00,VWS V14.01,2013-02-16 09:50:00,
2013-02-16 03:52:00,38.3,26.7,30.36,North,358,5.4,5.4,63,0.00,,SKC,0.00,VWS V14.01,2013-02-16 09:52:00,
2013-02-16 03:53:00,38.5,26.7,30.36,North,5,4.5,5.1,62,0.00,,SKC,0.00,VWS V14.01,2013-02-16 09:53:00,
2013-02-16 03:54:00,38.3,26.4,30.36,North,357,6.3,6.3,62,0.00,,SKC,0.00,VWS V14.01,2013-02-16 09:54:00,
2013-02-16 03:56:00,38.5,26.6,30.37,North,7,5.6,6.3,62,0.00,,SKC,0.00,VWS V14.01,2013-02-16 09:56:00,
2013-02-16 03:58:00,38.5,26.6,30.37,North,7,5.6,6.3,62,0.00,,SKC,0.00,VWS V14.01,2013-02-16 09:58:00,
2013-02-16 04:00:00,38.5,26.5,30.37,North,351,4.9,4.9,62,0.00,,SKC,0.00,VWS V14.01,2013-02-16 10:00:00,
2013-02-16 04:02:00,38.5,26.4,30.36,North,0,4.3,4.9,62,0.00,,SKC,0.00,VWS V14.01,2013-02-16 10:02:00,
2013-02-16 04:03:00,38.5,26.5,30.37,North,351,4.9,4.9,62,0.00,,SKC,0.00,VWS V14.01,2013-02-16 10:03:00,
2013-02-16 04:04:00,38.5,26.5,30.36,North,357,5.6,5.6,62,0.00,,SKC,0.00,VWS V14.01,2013-02-16 10:04:00,
2013-02-16 04:06:00,38.5,26.5,30.36,North,357,5.4,5.6,62,0.00,,SKC,0.00,VWS V14.01,2013-02-16 10:06:00,
2013-02-16 04:08:00,38.5,26.5,30.36,North,357,5.4,5.6,62,0.00,,SKC,0.00,VWS V14.01,2013-02-16 10:08:00,
2013-02-16 04:10:00,38.5,26.6,30.36,North,3,3.8,6.0,62,0.00,,SKC,0.00,VWS V14.01,2013-02-16 10:10:00,
2013-02-16 04:12:00,38.5,26.5,30.36,North,6,3.8,3.8,62,0.00,,SKC,0.00,VWS V14.01,2013-02-16 10:12:00,
2013-02-16 04:13:00,38.5,26.6,30.36,North,3,3.8,6.0,62,0.00,,SKC,0.00,VWS V14.01,2013-02-16 10:13:00,
2013-02-16 04:14:00,38.5,26.4,30.36,North,4,5.1,5.1,62,0.00,,SKC,0.00,VWS V14.01,2013-02-16 10:14:00,
2013-02-16 04:16:00,38.5,26.4,30.36,North,1,5.4,5.4,62,0.00,,SKC,0.00,VWS V14.01,2013-02-16 10:16:00,
2013-02-16 04:18:00,38.5,26.4,30.36,North,1,5.4,5.4,62,0.00,,SKC,0.00,VWS V14.01,2013-02-16 10:18:00,
2013-02-16 04:20:00,38.5,26.4,30.37,North,357,4.0,4.0,61,0.00,,SKC,0.00,VWS V14.01,2013-02-16 10:20:00,
2013-02-16 04:22:00,38.5,26.4,30.37,North,10,4.0,4.0,61,0.00,,SKC,0.00,VWS V14.01,2013-02-16 10:22:00,
2013-02-16 04:23:00,38.5,26.4,30.37,North,357,4.0,4.0,61,0.00,,SKC,0.00,VWS V14.01,2013-02-16 10:23:00,
2013-02-16 04:24:00,38.5,26.4,30.37,North,359,4.5,4.5,62,0.00,,SKC,0.00,VWS V14.01,2013-02-16 10:24:00,
2013-02-16 04:26:00,38.5,26.3,30.37,NNE,16,4.3,4.5,61,0.00,,SKC,0.00,VWS V14.01,2013-02-16 10:26:00,
2013-02-16 04:28:00,38.5,26.3,30.37,NNE,16,4.3,4.5,61,0.00,,SKC,0.00,VWS V14.01,2013-02-16 10:28:00,
2013-02-16 04:30:00,38.3,26.2,30.37,North,0,4.9,4.9,61,0.00,,SKC,0.00,VWS V14.01,2013-02-16 10:30:00,
2013-02-16 04:32:00,38.3,26.1,30.37,North,355,5.6,5.6,61,0.00,,SKC,0.00,VWS V14.01,2013-02-16 10:32:00,
2013-02-16 04:33:00,38.3,26.2,30.37,North,0,4.9,4.9,61,0.00,,SKC,0.00,VWS V14.01,2013-02-16 10:33:00,
2013-02-16 04:34:00,38.3,26.1,30.37,North,2,4.7,5.6,61,0.00,,SKC,0.00,VWS V14.01,2013-02-16 10:34:00,
2013-02-16 04:36:00,38.3,26.1,30.37,North,5,3.4,4.7,61,0.00,,SKC,0.00,VWS V14.01,2013-02-16 10:36:00,
2013-02-16 04:38:00,38.3,26.1,30.37,North,5,3.4,4.7,61,0.00,,SKC,0.00,VWS V14.01,2013-02-16 10:38:00,
2013-02-16 04:40:00,38.3,26.1,30.37,North,2,4.3,4.9,61,0.00,,SKC,0.00,VWS V14.01,2013-02-16 10:40:00,
2013-02-16 04:42:00,38.3,26.0,30.37,North,6,4.5,4.5,61,0.00,,SKC,0.00,VWS V14.01,2013-02-16 10:42:00,
2013-02-16 04:43:00,38.3,26.1,30.37,North,2,4.3,4.9,61,0.00,,SKC,0.00,VWS V14.01,2013-02-16 10:43:00,
2013-02-16 04:44:00,38.5,26.1,30.37,North,3,5.1,5.1,61,0.00,,SKC,0.00,VWS V14.01,2013-02-16 10:44:00,
2013-02-16 04:46:00,38.5,26.0,30.37,North,0,5.1,5.1,60,0.00,,SKC,0.00,VWS V14.01,2013-02-16 10:46:00,
2013-02-16 04:48:00,38.5,26.0,30.37,North,0,5.1,5.1,60,0.00,,SKC,0.00,VWS V14.01,2013-02-16 10:48:00,
2013-02-16 04:50:00,38.5,26.0,30.37,North,0,5.1,5.1,60,0.00,,SKC,0.00,VWS V14.01,2013-02-16 10:50:00,
2013-02-16 04:52:00,38.5,26.0,30.37,North,355,4.7,5.1,60,0.00,,SKC,0.00,VWS V14.01,2013-02-16 10:52:00,
2013-02-16 04:53:00,38.5,26.0,30.37,North,0,5.1,5.1,60,0.00,,SKC,0.00,VWS V14.01,2013-02-16 10:53:00,
2013-02-16 04:54:00,38.3,25.8,30.38,North,4,4.5,4.7,60,0.00,,SKC,0.00,VWS V14.01,2013-02-16 10:54:00,
2013-02-16 04:56:00,38.3,25.9,30.38,North,5,6.5,6.5,60,0.00,,SKC,0.00,VWS V14.01,2013-02-16 10:56:00,
2013-02-16 04:58:00,38.3,25.9,30.38,North,5,6.5,6.5,60,0.00,,SKC,0.00,VWS V14.01,2013-02-16 10:58:00,
2013-02-16 05:00:00,38.1,25.8,30.38,North,3,4.5,4.5,61,0.00,,SKC,0.00,VWS V14.01,2013-02-16 11:00:00,
2013-02-16 05:02:00,38.1,25.9,30.38,NNE,13,4.7,4.7,61,0.00,,SKC,0.00,VWS V14.01,2013-02-16 11:02:00,
2013-02-16 05:03:00,38.1,25.9,30.38,NNE,13,4.7,4.7,61,0.00,,SKC,0.00,VWS V14.01,2013-02-16 11:03:00,
2013-02-16 05:04:00,38.1,26.0,30.38,North,9,3.8,4.7,61,0.00,,SKC,0.00,VWS V14.01,2013-02-16 11:04:00,
2013-02-16 05:06:00,38.1,25.8,30.38,North,359,6.0,6.0,61,0.00,,SKC,0.00,VWS V14.01,2013-02-16 11:06:00,
2013-02-16 05:08:00,38.1,25.8,30.38,North,359,6.0,6.0,61,0.00,,SKC,0.00,VWS V14.01,2013-02-16 11:08:00,
2013-02-16 05:10:00,38.1,25.8,30.38,North,353,4.5,4.5,61,0.00,,SKC,0.00,VWS V14.01,2013-02-16 11:10:00,
2013-02-16 05:12:00,38.1,25.8,30.38,North,6,4.0,4.5,61,0.00,,SKC,0.00,VWS V14.01,2013-02-16 11:12:00,
2013-02-16 05:13:00,38.1,25.8,30.38,North,353,4.5,4.5,61,0.00,,SKC,0.00,VWS V14.01,2013-02-16 11:13:00,
2013-02-16 05:14:00,37.9,25.7,30.38,North,349,3.4,4.0,61,0.00,,SKC,0.00,VWS V14.01,2013-02-16 11:14:00,
2013-02-16 05:16:00,37.8,25.6,30.39,NNW,339,2.9,3.4,61,0.00,,SKC,0.00,VWS V14.01,2013-02-16 11:16:00,
2013-02-16 05:18:00,37.8,25.6,30.39,NNW,339,2.9,3.4,61,0.00,,SKC,0.00,VWS V14.01,2013-02-16 11:18:00,
2013-02-16 05:20:00,37.6,25.5,30.38,NNW,346,2.5,2.5,61,0.00,,SKC,0.00,VWS V14.01,2013-02-16 11:20:00,
2013-02-16 05:22:00,37.4,25.4,30.38,NNW,340,2.7,2.7,62,0.00,,SKC,0.00,VWS V14.01,2013-02-16 11:22:00,
2013-02-16 05:23:00,37.6,25.5,30.38,NNW,346,2.5,2.5,61,0.00,,SKC,0.00,VWS V14.01,2013-02-16 11:23:00,
2013-02-16 05:24:00,37.4,25.5,30.38,North,357,3.4,3.4,62,0.00,,SKC,0.00,VWS V14.01,2013-02-16 11:24:00,
2013-02-16 05:26:00,37.2,25.4,30.39,NNW,347,2.2,3.4,62,0.00,,SKC,0.00,VWS V14.01,2013-02-16 11:26:00,
2013-02-16 05:28:00,37.2,25.4,30.39,NNW,347,2.2,3.4,62,0.00,,SKC,0.00,VWS V14.01,2013-02-16 11:28:00,
2013-02-16 05:30:00,37.0,25.5,30.39,NNW,336,2.2,2.5,63,0.00,,SKC,0.00,VWS V14.01,2013-02-16 11:30:00,
2013-02-16 05:32:00,37.0,25.6,30.39,NNW,347,2.5,2.5,63,0.00,,SKC,0.00,VWS V14.01,2013-02-16 11:32:00,
2013-02-16 05:33:00,37.0,25.5,30.39,NNW,336,2.2,2.5,63,0.00,,SKC,0.00,VWS V14.01,2013-02-16 11:33:00,
2013-02-16 05:34:00,36.9,25.6,30.39,NNW,335,2.9,2.9,63,0.00,,SKC,0.00,VWS V14.01,2013-02-16 11:34:00,
2013-02-16 05:36:00,36.9,25.6,30.39,NNW,333,2.7,2.9,64,0.00,,SKC,0.00,VWS V14.01,2013-02-16 11:36:00,
2013-02-16 05:38:00,36.9,25.6,30.39,NNW,333,2.7,2.9,64,0.00,,SKC,0.00,VWS V14.01,2013-02-16 11:38:00,
2013-02-16 05:40:00,36.7,25.6,30.39,NW,321,2.5,2.5,64,0.00,,SKC,0.00,VWS V14.01,2013-02-16 11:40:00,
2013-02-16 05:42:00,36.7,25.6,30.39,NNW,328,3.1,3.1,64,0.00,,SKC,0.00,VWS V14.01,2013-02-16 11:42:00,
2013-02-16 05:43:00,36.7,25.6,30.39,NW,321,2.5,2.5,64,0.00,,SKC,0.00,VWS V14.01,2013-02-16 11:43:00,
2013-02-16 05:44:00,36.7,25.6,30.39,NNW,334,2.7,3.1,64,0.00,,SKC,0.00,VWS V14.01,2013-02-16 11:44:00,
2013-02-16 05:46:00,36.7,25.6,30.39,NNW,333,3.1,3.1,64,0.00,,SKC,0.00,VWS V14.01,2013-02-16 11:46:00,
2013-02-16 05:48:00,36.7,25.6,30.39,NNW,333,3.1,3.1,64,0.00,,SKC,0.00,VWS V14.01,2013-02-16 11:48:00,
2013-02-16 05:50:00,36.5,25.7,30.39,NNW,331,2.0,2.9,64,0.00,,SKC,0.00,VWS V14.01,2013-02-16 11:50:00,
2013-02-16 05:52:00,36.5,25.7,30.39,WNW,302,2.0,2.0,64,0.00,,SKC,0.00,VWS V14.01,2013-02-16 11:52:00,
2013-02-16 05:53:00,36.5,25.7,30.39,NNW,331,2.0,2.9,64,0.00,,SKC,0.00,VWS V14.01,2013-02-16 11:53:00,
2013-02-16 05:54:00,36.3,25.6,30.40,WNW,303,2.5,2.5,65,0.00,,SKC,0.00,VWS V14.01,2013-02-16 11:54:00,
2013-02-16 05:56:00,36.3,25.7,30.40,NNW,328,2.5,2.5,65,0.00,,SKC,0.00,VWS V14.01,2013-02-16 11:56:00,
2013-02-16 05:58:00,36.3,25.7,30.40,NNW,328,2.5,2.5,65,0.00,,SKC,0.00,VWS V14.01,2013-02-16 11:58:00,
2013-02-16 06:00:00,36.1,25.6,30.40,NW,315,2.5,2.5,65,0.00,,SKC,0.00,VWS V14.01,2013-02-16 12:00:00,
2013-02-16 06:02:00,36.1,25.7,30.40,WNW,299,1.8,2.5,65,0.00,,SKC,0.00,VWS V14.01,2013-02-16 12:02:00,
2013-02-16 06:03:00,36.1,25.6,30.40,NW,315,2.5,2.5,65,0.00,,SKC,0.00,VWS V14.01,2013-02-16 12:03:00,
2013-02-16 06:04:00,36.0,25.6,30.40,NW,304,2.0,2.0,66,0.00,,SKC,0.00,VWS V14.01,2013-02-16 12:04:00,
2013-02-16 06:06:00,35.8,25.6,30.40,NW,313,3.1,3.1,66,0.00,,SKC,0.00,VWS V14.01,2013-02-16 12:06:00,
2013-02-16 06:08:00,35.8,25.6,30.40,NW,313,3.1,3.1,66,0.00,,SKC,0.00,VWS V14.01,2013-02-16 12:08:00,
2013-02-16 06:10:00,35.6,25.6,30.40,NW,325,2.5,2.5,67,0.00,,SKC,0.00,VWS V14.01,2013-02-16 12:10:00,
2013-02-16 06:12:00,35.6,25.6,30.40,NW,305,2.0,2.5,67,0.00,,SKC,0.00,VWS V14.01,2013-02-16 12:12:00,
2013-02-16 06:13:00,35.6,25.6,30.40,NW,325,2.5,2.5,67,0.00,,SKC,0.00,VWS V14.01,2013-02-16 12:13:00,
2013-02-16 06:14:00,35.4,25.5,30.40,WSW,242,1.8,2.0,67,0.00,,SKC,0.00,VWS V14.01,2013-02-16 12:14:00,
2013-02-16 06:16:00,35.1,25.4,30.40,West,260,1.3,1.8,68,0.00,,SKC,0.00,VWS V14.01,2013-02-16 12:16:00,
2013-02-16 06:18:00,35.1,25.4,30.40,West,260,1.3,1.8,68,0.00,,SKC,0.00,VWS V14.01,2013-02-16 12:18:00,
2013-02-16 06:20:00,34.9,25.4,30.40,WNW,290,2.0,2.0,68,0.00,,SKC,0.00,VWS V14.01,2013-02-16 12:20:00,
2013-02-16 06:22:00,34.9,25.5,30.40,WNW,288,1.3,2.0,68,0.00,,SKC,0.00,VWS V14.01,2013-02-16 12:22:00,
2013-02-16 06:23:00,34.9,25.5,30.40,WNW,288,1.3,2.0,68,0.00,,SKC,0.00,VWS V14.01,2013-02-16 12:23:00,
2013-02-16 06:24:00,34.9,25.5,30.41,WNW,297,1.8,1.8,68,0.00,,SKC,0.00,VWS V14.01,2013-02-16 12:24:00,
2013-02-16 06:26:00,34.7,25.5,30.41,NW,324,2.5,2.5,69,0.00,,SKC,0.00,VWS V14.01,2013-02-16 12:26:00,
2013-02-16 06:28:00,34.7,25.5,30.41,NW,324,2.5,2.5,69,0.00,,SKC,0.00,VWS V14.01,2013-02-16 12:28:00,
2013-02-16 06:30:00,34.7,25.5,30.40,WNW,296,1.8,1.8,69,0.00,,SKC,0.00,VWS V14.01,2013-02-16 12:30:00,
2013-02-16 06:32:00,34.7,25.5,30.40,West,281,1.1,1.8,69,0.00,,SKC,0.00,VWS V14.01,2013-02-16 12:32:00,
2013-02-16 06:33:00,34.7,25.5,30.40,West,281,1.1,1.8,69,0.00,,SKC,0.00,VWS V14.01,2013-02-16 12:33:00,
2013-02-16 06:34:00,34.5,25.5,30.40,NW,307,2.0,2.0,69,0.00,,SKC,0.00,VWS V14.01,2013-02-16 12:34:00,
2013-02-16 06:36:00,34.3,25.3,30.40,WSW,252,1.1,2.0,69,0.00,,SKC,0.00,VWS V14.01,2013-02-16 12:36:00,
2013-02-16 06:38:00,34.3,25.3,30.40,WSW,252,1.1,2.0,69,0.00,,SKC,0.00,VWS V14.01,2013-02-16 12:38:00,
2013-02-16 06:40:00,34.3,25.3,30.40,NNW,339,1.8,2.0,69,0.00,,SKC,0.00,VWS V14.01,2013-02-16 12:40:00,
2013-02-16 06:42:00,34.3,25.3,30.40,NNW,332,2.0,2.0,69,0.00,,SKC,0.00,VWS V14.01,2013-02-16 12:42:00,
2013-02-16 06:43:00,34.3,25.3,30.40,NNW,332,2.0,2.0,69,0.00,,SKC,0.00,VWS V14.01,2013-02-16 12:43:00,
2013-02-16 06:44:00,34.3,25.2,30.40,NNW,332,0.9,2.0,69,0.00,,SKC,0.00,VWS V14.01,2013-02-16 12:44:00,
2013-02-16 06:46:00,34.5,25.3,30.40,NNW,335,2.7,2.7,69,0.00,,SKC,0.00,VWS V14.01,2013-02-16 12:46:00,
2013-02-16 06:48:00,34.5,25.3,30.40,NNW,335,2.7,2.7,69,0.00,,SKC,0.00,VWS V14.01,2013-02-16 12:48:00,
2013-02-16 06:50:00,34.5,25.1,30.40,WNW,288,2.0,2.0,68,0.00,,SKC,0.00,VWS V14.01,2013-02-16 12:50:00,
2013-02-16 06:52:00,34.5,25.2,30.40,West,274,2.2,2.2,68,0.00,,SKC,0.00,VWS V14.01,2013-02-16 12:52:00,
2013-02-16 06:53:00,34.5,25.2,30.40,West,274,2.2,2.2,68,0.00,,SKC,0.00,VWS V14.01,2013-02-16 12:53:00,
2013-02-16 06:54:00,34.3,25.2,30.41,WSW,249,2.0,2.2,69,0.00,,SKC,0.00,VWS V14.01,2013-02-16 12:54:00,
2013-02-16 06:56:00,34.0,25.1,30.41,West,259,2.7,2.7,70,0.00,,SKC,0.00,VWS V14.01,2013-02-16 12:56:00,
2013-02-16 06:58:00,34.0,25.1,30.41,West,259,2.7,2.7,70,0.00,,SKC,0.00,VWS V14.01,2013-02-16 12:58:00,
2013-02-16 07:00:00,33.6,25.0,30.41,SW,236,2.9,2.9,70,0.00,,SKC,0.00,VWS V14.01,2013-02-16 13:00:00,
2013-02-16 07:02:00,33.6,25.1,30.41,SW,229,2.5,2.9,71,0.00,,SKC,0.00,VWS V14.01,2013-02-16 13:02:00,
2013-02-16 07:03:00,33.6,25.1,30.41,SW,229,2.5,2.9,71,0.00,,SKC,0.00,VWS V14.01,2013-02-16 13:03:00,
2013-02-16 07:04:00,33.4,25.0,30.41,WSW,240,2.7,2.7,71,0.00,,SKC,0.00,VWS V14.01,2013-02-16 13:04:00,
2013-02-16 07:06:00,33.3,25.0,30.41,SW,228,2.5,2.7,71,0.00,,SKC,0.00,VWS V14.01,2013-02-16 13:06:00,
2013-02-16 07:08:00,33.3,25.0,30.41,SW,228,2.5,2.7,71,0.00,,SKC,0.00,VWS V14.01,2013-02-16 13:08:00,
2013-02-16 07:10:00,33.3,25.1,30.41,SW,231,2.7,2.9,72,0.00,,SKC,0.00,VWS V14.01,2013-02-16 13:10:00,
2013-02-16 07:12:00,33.3,25.1,30.41,SW,231,2.5,2.7,72,0.00,,SKC,0.00,VWS V14.01,2013-02-16 13:12:00,
2013-02-16 07:13:00,33.3,25.1,30.41,SW,231,2.5,2.7,72,0.00,,SKC,0.00,VWS V14.01,2013-02-16 13:13:00,
2013-02-16 07:14:00,33.3,25.1,30.41,SW,228,2.7,2.7,72,0.00,,SKC,0.00,VWS V14.01,2013-02-16 13:14:00,
2013-02-16 07:16:00,33.3,25.0,30.41,SW,229,2.5,2.7,71,0.00,,SKC,0.00,VWS V14.01,2013-02-16 13:16:00,
2013-02-16 07:18:00,33.3,25.0,30.41,SW,229,2.5,2.7,71,0.00,,SKC,0.00,VWS V14.01,2013-02-16 13:18:00,
2013-02-16 07:20:00,33.4,25.0,30.41,SW,235,2.7,2.7,71,0.00,,SKC,0.00,VWS V14.01,2013-02-16 13:20:00,
2013-02-16 07:22:00,33.4,25.0,30.41,SW,234,2.2,2.7,71,0.00,,SKC,0.00,VWS V14.01,2013-02-16 13:22:00,
2013-02-16 07:23:00,33.4,25.0,30.41,SW,235,2.7,2.7,71,0.00,,SKC,0.00,VWS V14.01,2013-02-16 13:23:00,
2013-02-16 07:24:00,33.4,24.9,30.41,SW,231,2.0,2.2,71,0.00,,SKC,0.00,VWS V14.01,2013-02-16 13:24:00,
2013-02-16 07:26:00,33.6,25.1,30.41,WSW,243,2.2,2.2,70,0.00,,SKC,0.00,VWS V14.01,2013-02-16 13:26:00,
2013-02-16 07:28:00,33.6,25.1,30.41,WSW,243,2.2,2.2,70,0.00,,SKC,0.00,VWS V14.01,2013-02-16 13:28:00,
2013-02-16 07:30:00,34.0,25.2,30.41,WSW,244,2.0,2.0,70,0.00,,SKC,0.00,VWS V14.01,2013-02-16 13:30:00,
2013-02-16 07:32:00,34.2,25.4,30.42,WSW,252,2.0,2.0,70,0.00,,SKC,0.00,VWS V14.01,2013-02-16 13:32:00,
2013-02-16 07:33:00,34.2,25.4,30.42,WSW,252,2.0,2.0,70,0.00,,SKC,0.00,VWS V14.01,2013-02-16 13:33:00,
2013-02-16 07:34:00,34.3,25.3,30.41,WSW,249,2.0,2.0,69,0.00,,SKC,0.00,VWS V14.01,2013-02-16 13:34:00,
2013-02-16 07:36:00,34.3,25.3,30.41,WSW,241,2.2,2.2,69,0.00,,SKC,0.00,VWS V14.01,2013-02-16 13:36:00,
2013-02-16 07:38:00,34.3,25.3,30.41,WSW,241,2.2,2.2,69,0.00,,SKC,0.00,VWS V14.01,2013-02-16 13:38:00,
2013-02-16 07:40:00,34.7,25.3,30.42,West,260,1.3,1.6,68,0.00,,SKC,0.00,VWS V14.01,2013-02-16 13:40:00,
2013-02-16 07:42:00,34.9,25.4,30.42,SW,236,1.1,1.3,68,0.00,,SKC,0.00,VWS V14.01,2013-02-16 13:42:00,
2013-02-16 07:43:00,34.9,25.4,30.42,SW,236,1.1,1.3,68,0.00,,SKC,0.00,VWS V14.01,2013-02-16 13:43:00,
2013-02-16 07:44:00,35.1,25.6,30.42,WSW,241,1.6,1.6,68,0.00,,SKC,0.00,VWS V14.01,2013-02-16 13:44:00,
2013-02-16 07:46:00,35.2,25.8,30.41,West,266,1.1,1.6,68,0.00,,SKC,0.00,VWS V14.01,2013-02-16 13:46:00,
2013-02-16 07:48:00,35.2,25.8,30.41,West,266,1.1,1.6,68,0.00,,SKC,0.00,VWS V14.01,2013-02-16 13:48:00,
2013-02-16 07:50:00,35.6,25.8,30.41,West,275,1.3,1.3,67,0.00,,SKC,0.00,VWS V14.01,2013-02-16 13:50:00,
2013-02-16 07:52:00,36.0,25.9,30.41,WSW,254,1.6,1.6,66,0.00,,SKC,0.00,VWS V14.01,2013-02-16 13:52:00,
2013-02-16 07:53:00,36.0,25.9,30.41,WSW,254,1.6,1.6,66,0.00,,SKC,0.00,VWS V14.01,2013-02-16 13:53:00,
2013-02-16 07:54:00,36.3,25.9,30.41,WSW,247,2.0,2.0,66,0.00,,SKC,0.00,VWS V14.01,2013-02-16 13:54:00,
2013-02-16 07:56:00,36.5,25.6,30.41,NNW,327,1.6,2.0,64,0.00,,SKC,0.00,VWS V14.01,2013-02-16 13:56:00,
2013-02-16 07:58:00,36.5,25.6,30.41,NNW,327,1.6,2.0,64,0.00,,SKC,0.00,VWS V14.01,2013-02-16 13:58:00,
2013-02-16 08:00:00,37.0,26.0,30.42,NW,309,2.7,2.7,64,0.00,,SKC,0.00,VWS V14.01,2013-02-16 14:00:00,
2013-02-16 08:02:00,37.4,25.9,30.42,NW,306,1.3,2.7,63,0.00,,SKC,0.00,VWS V14.01,2013-02-16 14:02:00,
2013-02-16 08:03:00,37.0,26.0,30.42,NW,309,2.7,2.7,64,0.00,,SKC,0.00,VWS V14.01,2013-02-16 14:03:00,
2013-02-16 08:04:00,37.8,26.2,30.42,NW,316,2.5,2.5,63,0.00,,SKC,0.00,VWS V14.01,2013-02-16 14:04:00,
2013-02-16 08:06:00,38.1,25.6,30.42,NNW,343,3.4,3.4,60,0.00,,SKC,0.00,VWS V14.01,2013-02-16 14:06:00,
2013-02-16 08:08:00,38.1,25.6,30.42,NNW,343,3.4,3.4,60,0.00,,SKC,0.00,VWS V14.01,2013-02-16 14:08:00,
2013-02-16 08:10:00,39.0,25.8,30.42,North,0,3.8,3.8,59,0.00,,SKC,0.00,VWS V14.01,2013-02-16 14:10:00,
2013-02-16 08:12:00,39.4,26.1,30.42,North,358,2.2,3.8,59,0.00,,SKC,0.00,VWS V14.01,2013-02-16 14:12:00,
2013-02-16 08:13:00,39.0,25.8,30.42,North,0,3.8,3.8,59,0.00,,SKC,0.00,VWS V14.01,2013-02-16 14:13:00,
2013-02-16 08:14:00,39.7,26.2,30.42,NW,312,2.9,2.9,58,0.00,,SKC,0.00,VWS V14.01,2013-02-16 14:14:00,
2013-02-16 08:16:00,39.9,25.9,30.42,NNW,327,2.9,2.9,57,0.00,,SKC,0.00,VWS V14.01,2013-02-16 14:16:00,
2013-02-16 08:18:00,39.9,25.9,30.42,NNW,327,2.9,2.9,57,0.00,,SKC,0.00,VWS V14.01,2013-02-16 14:18:00,
2013-02-16 08:20:00,40.6,26.3,30.42,North,351,2.0,2.5,56,0.00,,SKC,0.00,VWS V14.01,2013-02-16 14:20:00,
2013-02-16 08:22:00,40.8,26.2,30.42,NW,310,0.9,2.0,56,0.00,,SKC,0.00,VWS V14.01,2013-02-16 14:22:00,
2013-02-16 08:23:00,40.6,26.3,30.42,North,351,2.0,2.5,56,0.00,,SKC,0.00,VWS V14.01,2013-02-16 14:23:00,
2013-02-16 08:24:00,41.2,26.5,30.43,North,8,2.9,2.9,56,0.00,,SKC,0.00,VWS V14.01,2013-02-16 14:24:00,
2013-02-16 08:26:00,41.5,26.8,30.43,North,6,3.4,3.4,56,0.00,,SKC,0.00,VWS V14.01,2013-02-16 14:26:00,
2013-02-16 08:28:00,41.5,26.8,30.43,North,6,3.4,3.4,56,0.00,,SKC,0.00,VWS V14.01,2013-02-16 14:28:00,
2013-02-16 08:30:00,42.1,25.6,30.43,North,8,5.4,5.4,52,0.00,,SKC,0.00,VWS V14.01,2013-02-16 14:30:00,
2013-02-16 08:32:00,42.1,25.8,30.43,NNE,25,4.3,5.4,52,0.00,,SKC,0.00,VWS V14.01,2013-02-16 14:32:00,
2013-02-16 08:33:00,42.1,25.6,30.43,North,8,5.4,5.4,52,0.00,,SKC,0.00,VWS V14.01,2013-02-16 14:33:00,
2013-02-16 08:34:00,42.3,25.2,30.43,North,0,6.0,6.0,50,0.00,,SKC,0.00,VWS V14.01,2013-02-16 14:34:00,
2013-02-16 08:36:00,42.3,26.4,30.43,North,355,2.0,6.0,53,0.00,,SKC,0.00,VWS V14.01,2013-02-16 14:36:00,
2013-02-16 08:38:00,42.3,26.4,30.43,North,355,2.0,6.0,53,0.00,,SKC,0.00,VWS V14.01,2013-02-16 14:38:00,
2013-02-16 08:40:00,42.6,26.2,30.43,NNE,28,3.8,3.8,52,0.00,,SKC,0.00,VWS V14.01,2013-02-16 14:40:00,
2013-02-16 08:42:00,42.6,25.6,30.43,NNE,23,3.8,3.8,51,0.00,,SKC,0.00,VWS V14.01,2013-02-16 14:42:00,
2013-02-16 08:43:00,42.6,25.6,30.43,NNE,23,3.8,3.8,51,0.00,,SKC,0.00,VWS V14.01,2013-02-16 14:43:00,
2013-02-16 08:44:00,42.8,25.2,30.43,North,11,6.9,6.9,50,0.00,,SKC,0.00,VWS V14.01,2013-02-16 14:44:00,
2013-02-16 08:46:00,42.8,24.6,30.43,North,357,6.5,6.9,48,0.00,,SKC,0.00,VWS V14.01,2013-02-16 14:46:00,
2013-02-16 08:48:00,42.8,24.6,30.43,North,357,6.5,6.9,48,0.00,,SKC,0.00,VWS V14.01,2013-02-16 14:48:00,
2013-02-16 08:50:00,43.3,26.1,30.43,North,3,3.6,5.8,50,0.00,,SKC,0.00,VWS V14.01,2013-02-16 14:50:00,
2013-02-16 08:52:00,43.5,25.8,30.43,NNE,28,4.9,4.9,49,0.00,,SKC,0.00,VWS V14.01,2013-02-16 14:52:00,
2013-02-16 08:53:00,43.5,25.8,30.43,NNE,28,4.9,4.9,49,0.00,,SKC,0.00,VWS V14.01,2013-02-16 14:53:00,
2013-02-16 08:54:00,43.7,26.2,30.44,NNW,344,2.9,4.9,50,0.00,,SKC,0.00,VWS V14.01,2013-02-16 14:54:00,
2013-02-16 08:56:00,43.9,25.7,30.44,NNE,30,5.6,5.6,48,0.00,,SKC,0.00,VWS V14.01,2013-02-16 14:56:00,
2013-02-16 08:58:00,43.9,25.7,30.44,NNE,30,5.6,5.6,48,0.00,,SKC,0.00,VWS V14.01,2013-02-16 14:58:00,
2013-02-16 09:00:00,43.7,25.1,30.44,North,10,4.3,7.2,48,0.00,,SKC,0.00,VWS V14.01,2013-02-16 15:00:00,
2013-02-16 09:02:00,44.1,24.8,30.44,North,5,6.0,6.0,46,0.00,,SKC,0.00,VWS V14.01,2013-02-16 15:02:00,
2013-02-16 09:03:00,43.7,25.1,30.44,North,10,4.3,7.2,48,0.00,,SKC,0.00,VWS V14.01,2013-02-16 15:03:00,
2013-02-16 09:04:00,44.4,25.1,30.44,North,352,7.2,7.2,46,0.00,,SKC,0.00,VWS V14.01,2013-02-16 15:04:00,
2013-02-16 09:06:00,44.4,24.8,30.44,North,4,6.9,7.2,46,0.00,,SKC,0.00,VWS V14.01,2013-02-16 15:06:00,
2013-02-16 09:08:00,44.4,24.8,30.44,North,4,6.9,7.2,46,0.00,,SKC,0.00,VWS V14.01,2013-02-16 15:08:00,
2013-02-16 09:10:00,44.8,23.7,30.44,North,4,5.6,5.6,43,0.00,,SKC,0.00,VWS V14.01,2013-02-16 15:10:00,
2013-02-16 09:12:00,45.0,24.4,30.43,North,2,5.4,5.6,44,0.00,,SKC,0.00,VWS V14.01,2013-02-16 15:12:00,
2013-02-16 09:13:00,44.8,23.7,30.44,North,4,5.6,5.6,43,0.00,,SKC,0.00,VWS V14.01,2013-02-16 15:13:00,
2013-02-16 09:14:00,45.1,24.5,30.43,North,8,6.5,6.5,44,0.00,,SKC,0.00,VWS V14.01,2013-02-16 15:14:00,
2013-02-16 09:16:00,45.3,24.3,30.43,North,356,5.1,6.5,43,0.00,,SKC,0.00,VWS V14.01,2013-02-16 15:16:00,
2013-02-16 09:18:00,45.3,24.3,30.43,North,356,5.1,6.5,43,0.00,,SKC,0.00,VWS V14.01,2013-02-16 15:18:00,
2013-02-16 09:20:00,45.7,24.3,30.44,NE,44,4.5,4.5,43,0.00,,SKC,0.00,VWS V14.01,2013-02-16 15:20:00,
2013-02-16 09:22:00,45.7,22.2,30.44,NE,54,6.9,6.9,39,0.00,,SKC,0.00,VWS V14.01,2013-02-16 15:22:00,
2013-02-16 09:23:00,45.7,24.3,30.44,NE,44,4.5,4.5,43,0.00,,SKC,0.00,VWS V14.01,2013-02-16 15:23:00,
2013-02-16 09:24:00,45.9,23.4,30.44,NNE,14,4.0,6.9,41,0.00,,SKC,0.00,VWS V14.01,2013-02-16 15:24:00,
2013-02-16 09:26:00,45.9,23.3,30.44,North,349,4.9,4.9,41,0.00,,SKC,0.00,VWS V14.01,2013-02-16 15:26:00,
2013-02-16 09:28:00,45.9,23.3,30.44,North,349,4.9,4.9,41,0.00,,SKC,0.00,VWS V14.01,2013-02-16 15:28:00,
2013-02-16 09:30:00,46.4,22.9,30.44,NNW,348,5.1,5.6,39,0.00,,SKC,0.00,VWS V14.01,2013-02-16 15:30:00,
2013-02-16 09:32:00,46.4,22.9,30.44,North,349,4.0,5.1,39,0.00,,SKC,0.00,VWS V14.01,2013-02-16 15:32:00,
2013-02-16 09:33:00,46.4,22.9,30.44,NNW,348,5.1,5.6,39,0.00,,SKC,0.00,VWS V14.01,2013-02-16 15:33:00,
2013-02-16 09:34:00,46.4,21.9,30.44,NNW,342,4.9,4.9,38,0.00,,SKC,0.00,VWS V14.01,2013-02-16 15:34:00,
2013-02-16 09:36:00,46.4,21.1,30.44,NNE,23,6.0,6.0,36,0.00,,SKC,0.00,VWS V14.01,2013-02-16 15:36:00,
2013-02-16 09:38:00,46.4,21.1,30.44,NNE,23,6.0,6.0,36,0.00,,SKC,0.00,VWS V14.01,2013-02-16 15:38:00,
2013-02-16 09:40:00,46.9,21.5,30.44,North,353,4.7,4.9,36,0.00,,SKC,0.00,VWS V14.01,2013-02-16 15:40:00,
2013-02-16 09:42:00,46.9,22.2,30.44,NNE,18,3.6,4.7,37,0.00,,SKC,0.00,VWS V14.01,2013-02-16 15:42:00,
2013-02-16 09:43:00,46.9,21.5,30.44,North,353,4.7,4.9,36,0.00,,SKC,0.00,VWS V14.01,2013-02-16 15:43:00,
2013-02-16 09:44:00,47.1,21.6,30.44,NNE,32,8.1,8.1,36,0.00,,SKC,0.00,VWS V14.01,2013-02-16 15:44:00,
2013-02-16 09:46:00,47.3,22.2,30.44,NNE,19,8.3,8.3,37,0.00,,SKC,0.00,VWS V14.01,2013-02-16 15:46:00,
2013-02-16 09:48:00,47.3,22.2,30.44,NNE,19,8.3,8.3,37,0.00,,SKC,0.00,VWS V14.01,2013-02-16 15:48:00,
2013-02-16 09:50:00,47.1,21.8,30.44,NE,36,3.6,6.3,36,0.00,,SKC,0.00,VWS V14.01,2013-02-16 15:50:00,
2013-02-16 09:52:00,47.7,23.9,30.44,East,81,2.0,3.6,39,0.00,,SKC,0.00,VWS V14.01,2013-02-16 15:52:00,
2013-02-16 09:53:00,47.1,21.8,30.44,NE,36,3.6,6.3,36,0.00,,SKC,0.00,VWS V14.01,2013-02-16 15:53:00,
2013-02-16 09:54:00,47.8,21.7,30.44,NNE,15,7.2,7.2,35,0.00,,SKC,0.00,VWS V14.01,2013-02-16 15:54:00,
2013-02-16 09:56:00,47.7,22.1,30.44,North,358,4.9,7.2,36,0.00,,SKC,0.00,VWS V14.01,2013-02-16 15:56:00,
2013-02-16 09:58:00,47.7,22.1,30.44,North,358,4.9,7.2,36,0.00,,SKC,0.00,VWS V14.01,2013-02-16 15:58:00,
2013-02-16 10:00:00,48.0,21.8,30.44,North,9,4.9,4.9,35,0.00,,SKC,0.00,VWS V14.01,2013-02-16 16:00:00,
2013-02-16 10:02:00,48.0,22.0,30.44,NE,38,4.3,4.9,36,0.00,,SKC,0.00,VWS V14.01,2013-02-16 16:02:00,
2013-02-16 10:03:00,48.0,21.8,30.44,North,9,4.9,4.9,35,0.00,,SKC,0.00,VWS V14.01,2013-02-16 16:03:00,
2013-02-16 10:04:00,48.2,22.0,30.44,North,11,4.7,4.7,35,0.00,,SKC,0.00,VWS V14.01,2013-02-16 16:04:00,
2013-02-16 10:06:00,48.6,22.5,30.44,NNE,33,7.2,7.2,36,0.00,,SKC,0.00,VWS V14.01,2013-02-16 16:06:00,
2013-02-16 10:07:00,48.6,22.5,30.44,NNE,33,7.2,7.2,36,0.00,,SKC,0.00,VWS V14.01,2013-02-16 16:07:00,
2013-02-16 10:08:00,48.9,23.0,30.44,NE,44,5.8,7.2,36,0.00,,SKC,0.00,VWS V14.01,2013-02-16 16:08:00,
2013-02-16 10:10:00,48.7,22.7,30.44,NE,49,6.0,6.0,36,0.00,,SKC,0.00,VWS V14.01,2013-02-16 16:10:00,
2013-02-16 10:12:00,48.7,22.7,30.44,NE,49,6.0,6.0,36,0.00,,SKC,0.00,VWS V14.01,2013-02-16 16:12:00,
2013-02-16 10:14:00,49.5,22.8,30.43,NNE,26,4.7,4.7,35,0.00,,SKC,0.00,VWS V14.01,2013-02-16 16:14:00,
2013-02-16 10:16:00,49.3,23.1,30.43,NW,311,0.4,4.7,35,0.00,,SKC,0.00,VWS V14.01,2013-02-16 16:16:00,
2013-02-16 10:17:00,49.3,23.1,30.43,NW,311,0.4,4.7,35,0.00,,SKC,0.00,VWS V14.01,2013-02-16 16:17:00,
2013-02-16 10:18:00,49.6,24.6,30.43,North,10,3.4,3.4,37,0.00,,SKC,0.00,VWS V14.01,2013-02-16 16:18:00,
2013-02-16 10:20:00,50.2,25.4,30.43,NNE,30,5.1,5.1,38,0.00,,SKC,0.00,VWS V14.01,2013-02-16 16:20:00,
2013-02-16 10:22:00,50.2,25.4,30.43,NNE,30,5.1,5.1,38,0.00,,SKC,0.00,VWS V14.01,2013-02-16 16:22:00,
2013-02-16 10:24:00,49.6,21.7,30.43,NNE,17,3.4,6.5,33,0.00,,SKC,0.00,VWS V14.01,2013-02-16 16:24:00,
2013-02-16 10:26:00,49.6,23.6,30.43,NNE,31,4.0,4.0,36,0.00,,SKC,0.00,VWS V14.01,2013-02-16 16:26:00,
2013-02-16 10:27:00,49.6,23.6,30.43,NNE,31,4.0,4.0,36,0.00,,SKC,0.00,VWS V14.01,2013-02-16 16:27:00,
2013-02-16 10:28:00,49.8,23.7,30.43,NNW,334,1.6,4.0,36,0.00,,SKC,0.00,VWS V14.01,2013-02-16 16:28:00,
2013-02-16 10:30:00,50.7,23.6,30.43,NNW,345,6.5,6.5,34,0.00,,SKC,0.00,VWS V14.01,2013-02-16 16:30:00,
2013-02-16 10:32:00,50.7,23.6,30.43,NNW,345,6.5,6.5,34,0.00,,SKC,0.00,VWS V14.01,2013-02-16 16:32:00,
2013-02-16 10:34:00,50.9,23.8,30.43,NNE,23,4.9,4.9,34,0.00,,SKC,0.00,VWS V14.01,2013-02-16 16:34:00,
2013-02-16 10:36:00,50.5,22.7,30.43,NNE,17,7.6,7.6,33,0.00,,SKC,0.00,VWS V14.01,2013-02-16 16:36:00,
2013-02-16 10:37:00,50.5,22.7,30.43,NNE,17,7.6,7.6,33,0.00,,SKC,0.00,VWS V14.01,2013-02-16 16:37:00,
2013-02-16 10:38:00,50.4,23.9,30.43,NNW,343,4.5,7.6,35,0.00,,SKC,0.00,VWS V14.01,2013-02-16 16:38:00,
2013-02-16 10:40:00,50.4,22.7,30.43,NNE,26,3.8,4.5,34,0.00,,SKC,0.00,VWS V14.01,2013-02-16 16:40:00,
2013-02-16 10:42:00,50.4,22.7,30.43,NNE,26,3.8,4.5,34,0.00,,SKC,0.00,VWS V14.01,2013-02-16 16:42:00,
2013-02-16 10:44:00,50.7,24.8,30.43,NNW,336,5.4,5.4,36,0.00,,SKC,0.00,VWS V14.01,2013-02-16 16:44:00,
2013-02-16 10:46:00,51.3,24.3,30.42,North,355,6.3,6.3,35,0.00,,SKC,0.00,VWS V14.01,2013-02-16 16:46:00,
2013-02-16 10:47:00,51.3,24.3,30.42,North,355,6.3,6.3,35,0.00,,SKC,0.00,VWS V14.01,2013-02-16 16:47:00,
2013-02-16 10:48:00,50.9,23.0,30.42,NNE,17,11.2,11.2,33,0.00,,SKC,0.00,VWS V14.01,2013-02-16 16:48:00,
2013-02-16 10:50:00,50.9,23.2,30.42,NNE,15,9.6,11.2,34,0.00,,SKC,0.00,VWS V14.01,2013-02-16 16:50:00,
2013-02-16 10:52:00,50.9,23.2,30.42,NNE,15,9.6,11.2,34,0.00,,SKC,0.00,VWS V14.01,2013-02-16 16:52:00,
2013-02-16 10:54:00,51.1,24.1,30.42,NNE,23,7.6,7.6,35,0.00,,SKC,0.00,VWS V14.01,2013-02-16 16:54:00,
2013-02-16 10:56:00,51.6,24.5,30.42,North,8,5.8,7.6,34,0.00,,SKC,0.00,VWS V14.01,2013-02-16 16:56:00,
2013-02-16 10:58:00,51.6,24.5,30.42,North,8,5.8,7.6,34,0.00,,SKC,0.00,VWS V14.01,2013-02-16 16:58:00,
2013-02-16 11:00:00,51.8,23.6,30.42,NNE,23,7.2,11.4,33,0.00,,SKC,0.00,VWS V14.01,2013-02-16 17:00:00,
2013-02-16 11:02:00,51.8,23.6,30.42,NNE,23,7.2,11.4,33,0.00,,SKC,0.00,VWS V14.01,2013-02-16 17:02:00,
2013-02-16 11:04:00,51.3,24.6,30.42,NNW,336,2.5,3.8,35,0.00,,SKC,0.00,VWS V14.01,2013-02-16 17:04:00,
2013-02-16 11:06:00,52.2,23.2,30.42,NW,324,8.3,8.3,32,0.00,,SKC,0.00,VWS V14.01,2013-02-16 17:06:00,
2013-02-16 11:08:00,52.2,23.2,30.42,NW,324,8.3,8.3,32,0.00,,SKC,0.00,VWS V14.01,2013-02-16 17:08:00,
2013-02-16 11:10:00,52.7,23.3,30.42,WNW,301,6.7,7.2,32,0.00,,SKC,0.00,VWS V14.01,2013-02-16 17:10:00,
2013-02-16 11:12:00,52.7,23.3,30.42,WNW,301,6.7,7.2,32,0.00,,SKC,0.00,VWS V14.01,2013-02-16 17:12:00,
2013-02-16 11:14:00,52.9,24.1,30.42,North,356,4.3,4.3,32,0.00,,SKC,0.00,VWS V14.01,2013-02-16 17:14:00,
2013-02-16 11:16:00,52.7,25.2,30.42,NNW,347,6.9,6.9,34,0.00,,SKC,0.00,VWS V14.01,2013-02-16 17:16:00,
2013-02-16 11:17:00,52.7,25.2,30.42,NNW,347,6.9,6.9,34,0.00,,SKC,0.00,VWS V14.01,2013-02-16 17:17:00,
2013-02-16 11:18:00,52.7,24.6,30.42,NNW,343,5.4,6.9,33,0.00,,SKC,0.00,VWS V14.01,2013-02-16 17:18:00,
2013-02-16 11:20:00,52.5,23.5,30.42,NW,319,3.6,5.4,32,0.00,,SKC,0.00,VWS V14.01,2013-02-16 17:20:00,
2013-02-16 11:22:00,52.5,23.5,30.42,NW,319,3.6,5.4,32,0.00,,SKC,0.00,VWS V14.01,2013-02-16 17:22:00,
2013-02-16 11:24:00,52.9,26.2,30.41,NNW,330,4.3,6.0,35,0.00,,SKC,0.00,VWS V14.01,2013-02-16 17:24:00,
2013-02-16 11:26:00,53.2,25.5,30.41,NW,325,4.3,4.3,34,0.00,,SKC,0.00,VWS V14.01,2013-02-16 17:26:00,
2013-02-16 11:27:00,53.2,25.5,30.41,NW,325,4.3,4.3,34,0.00,,SKC,0.00,VWS V14.01,2013-02-16 17:27:00,
2013-02-16 11:28:00,53.4,25.6,30.41,NW,325,0.7,4.3,34,0.00,,SKC,0.00,VWS V14.01,2013-02-16 17:28:00,
2013-02-16 11:30:00,53.4,25.4,30.41,NNW,342,2.7,2.7,33,0.00,,SKC,0.00,VWS V14.01,2013-02-16 17:30:00,
2013-02-16 11:32:00,53.4,25.4,30.41,NNW,342,2.7,2.7,33,0.00,,SKC,0.00,VWS V14.01,2013-02-16 17:32:00,
2013-02-16 11:34:00,53.8,23.9,30.41,NNW,331,4.5,4.5,31,0.00,,SKC,0.00,VWS V14.01,2013-02-16 17:34:00,
2013-02-16 11:36:00,53.6,24.0,30.41,North,350,8.1,8.1,31,0.00,,SKC,0.00,VWS V14.01,2013-02-16 17:36:00,
2013-02-16 11:37:00,53.6,24.0,30.41,North,350,8.1,8.1,31,0.00,,SKC,0.00,VWS V14.01,2013-02-16 17:37:00,
2013-02-16 11:38:00,53.2,25.5,30.41,WNW,288,0.7,8.1,34,0.00,,SKC,0.00,VWS V14.01,2013-02-16 17:38:00,
2013-02-16 11:40:00,53.6,24.5,30.41,WNW,302,3.4,3.4,32,0.00,,SKC,0.00,VWS V14.01,2013-02-16 17:40:00,
2013-02-16 11:42:00,53.6,24.5,30.41,WNW,302,3.4,3.4,32,0.00,,SKC,0.00,VWS V14.01,2013-02-16 17:42:00,
2013-02-16 11:44:00,54.5,25.0,30.40,SSE,162,0.9,6.7,32,0.00,,SKC,0.00,VWS V14.01,2013-02-16 17:44:00,
2013-02-16 11:46:00,54.5,23.6,30.40,North,356,3.1,3.1,30,0.00,,SKC,0.00,VWS V14.01,2013-02-16 17:46:00,
2013-02-16 11:47:00,54.5,23.6,30.40,North,356,3.1,3.1,30,0.00,,SKC,0.00,VWS V14.01,2013-02-16 17:47:00,
2013-02-16 11:48:00,54.5,23.8,30.40,NW,316,4.3,4.3,30,0.00,,SKC,0.00,VWS V14.01,2013-02-16 17:48:00,
2013-02-16 11:50:00,54.7,25.2,30.40,NW,316,2.5,4.3,32,0.00,,SKC,0.00,VWS V14.01,2013-02-16 17:50:00,
2013-02-16 11:52:00,54.7,25.2,30.40,NW,316,2.5,4.3,32,0.00,,SKC,0.00,VWS V14.01,2013-02-16 17:52:00,
2013-02-16 11:54:00,55.4,25.4,30.40,WNW,299,2.0,6.5,31,0.00,,SKC,0.00,VWS V14.01,2013-02-16 17:54:00,
2013-02-16 11:56:00,55.8,26.0,30.40,NW,312,1.8,2.0,32,0.00,,SKC,0.00,VWS V14.01,2013-02-16 17:56:00,
2013-02-16 11:57:00,55.8,26.0,30.40,NW,312,1.8,2.0,32,0.00,,SKC,0.00,VWS V14.01,2013-02-16 17:57:00,
2013-02-16 11:58:00,55.4,23.9,30.40,SE,128,1.6,1.8,29,0.00,,SKC,0.00,VWS V14.01,2013-02-16 17:58:00,
2013-02-16 12:00:00,55.4,26.3,30.40,West,280,1.3,1.6,32,0.00,,SKC,0.00,VWS V14.01,2013-02-16 18:00:00,
2013-02-16 12:02:00,55.4,26.3,30.40,West,280,1.3,1.6,32,0.00,,SKC,0.00,VWS V14.01,2013-02-16 18:02:00,
2013-02-16 12:04:00,55.9,24.2,30.39,NW,314,5.8,5.8,29,0.00,,SKC,0.00,VWS V14.01,2013-02-16 18:04:00,
2013-02-16 12:06:00,56.1,23.8,30.39,NW,317,4.7,5.8,28,0.00,,SKC,0.00,VWS V14.01,2013-02-16 18:06:00,
2013-02-16 12:07:00,56.1,23.8,30.39,NW,317,4.7,5.8,28,0.00,,SKC,0.00,VWS V14.01,2013-02-16 18:07:00,
2013-02-16 12:08:00,55.9,24.6,30.39,North,354,6.3,6.3,30,0.00,,SKC,0.00,VWS V14.01,2013-02-16 18:08:00,
2013-02-16 12:10:00,55.8,23.9,30.39,NNW,348,4.9,6.3,29,0.00,,SKC,0.00,VWS V14.01,2013-02-16 18:10:00,
2013-02-16 12:12:00,55.8,23.9,30.39,NNW,348,4.9,6.3,29,0.00,,SKC,0.00,VWS V14.01,2013-02-16 18:12:00,
2013-02-16 12:14:00,55.6,26.2,30.39,NNW,336,9.2,10.1,32,0.00,,SKC,0.00,VWS V14.01,2013-02-16 18:14:00,
2013-02-16 12:16:00,55.4,22.9,30.38,NNE,13,11.0,11.0,28,0.00,,SKC,0.00,VWS V14.01,2013-02-16 18:16:00,
2013-02-16 12:17:00,55.4,22.9,30.38,NNE,13,11.0,11.0,28,0.00,,SKC,0.00,VWS V14.01,2013-02-16 18:17:00,
2013-02-16 12:18:00,55.4,23.9,30.38,North,355,11.2,11.2,29,0.00,,SKC,0.00,VWS V14.01,2013-02-16 18:18:00,
2013-02-16 12:20:00,55.8,24.2,30.38,North,349,13.4,13.4,29,0.00,,SKC,0.00,VWS V14.01,2013-02-16 18:20:00,
2013-02-16 12:22:00,55.8,24.2,30.38,North,349,13.4,13.4,29,0.00,,SKC,0.00,VWS V14.01,2013-02-16 18:22:00,
2013-02-16 12:24:00,56.1,24.4,30.38,NW,316,4.9,11.9,29,0.00,,SKC,0.00,VWS V14.01,2013-02-16 18:24:00,
2013-02-16 12:26:00,56.1,25.2,30.38,North,6,7.4,7.4,30,0.00,,SKC,0.00,VWS V14.01,2013-02-16 18:26:00,
2013-02-16 12:27:00,56.1,25.2,30.38,North,6,7.4,7.4,30,0.00,,SKC,0.00,VWS V14.01,2013-02-16 18:27:00,
2013-02-16 12:28:00,55.9,24.6,30.38,North,3,9.4,9.4,30,0.00,,SKC,0.00,VWS V14.01,2013-02-16 18:28:00,
2013-02-16 12:30:00,55.8,23.6,30.38,NNE,14,4.7,9.4,28,0.00,,SKC,0.00,VWS V14.01,2013-02-16 18:30:00,
2013-02-16 12:32:00,55.8,23.6,30.38,NNE,14,4.7,9.4,28,0.00,,SKC,0.00,VWS V14.01,2013-02-16 18:32:00,
2013-02-16 12:34:00,56.8,24.6,30.37,NNW,334,6.7,9.4,29,0.00,,SKC,0.00,VWS V14.01,2013-02-16 18:34:00,
2013-02-16 12:36:00,56.7,25.6,30.37,North,11,10.7,10.7,30,0.00,,SKC,0.00,VWS V14.01,2013-02-16 18:36:00,
2013-02-16 12:37:00,56.7,25.6,30.37,North,11,10.7,10.7,30,0.00,,SKC,0.00,VWS V14.01,2013-02-16 18:37:00,
2013-02-16 12:38:00,56.3,26.8,30.37,NNE,18,4.7,10.7,32,0.00,,SKC,0.00,VWS V14.01,2013-02-16 18:38:00,
2013-02-16 12:40:00,56.5,25.0,30.37,NNW,327,5.1,5.1,29,0.00,,SKC,0.00,VWS V14.01,2013-02-16 18:40:00,
2013-02-16 12:42:00,56.5,25.0,30.37,NNW,327,5.1,5.1,29,0.00,,SKC,0.00,VWS V14.01,2013-02-16 18:42:00,
2013-02-16 12:44:00,57.6,25.9,30.37,NW,310,5.4,5.4,29,0.00,,SKC,0.00,VWS V14.01,2013-02-16 18:44:00,
2013-02-16 12:46:00,57.7,25.3,30.37,West,260,6.7,6.7,28,0.00,,SKC,0.00,VWS V14.01,2013-02-16 18:46:00,
2013-02-16 12:47:00,57.7,25.3,30.37,West,260,6.7,6.7,28,0.00,,SKC,0.00,VWS V14.01,2013-02-16 18:47:00,
2013-02-16 12:48:00,57.6,27.2,30.37,NNW,342,3.8,6.7,31,0.00,,SKC,0.00,VWS V14.01,2013-02-16 18:48:00,
2013-02-16 12:50:00,58.1,26.5,30.36,NW,316,4.5,4.5,30,0.00,,SKC,0.00,VWS V14.01,2013-02-16 18:50:00,
2013-02-16 12:52:00,58.1,26.5,30.36,NW,316,4.5,4.5,30,0.00,,SKC,0.00,VWS V14.01,2013-02-16 18:52:00,
2013-02-16 12:54:00,57.4,26.1,30.36,NW,325,9.0,10.1,30,0.00,,SKC,0.00,VWS V14.01,2013-02-16 18:54:00,
2013-02-16 12:56:00,57.2,26.6,30.36,North,351,9.6,9.6,31,0.00,,SKC,0.00,VWS V14.01,2013-02-16 18:56:00,
2013-02-16 12:58:00,57.2,26.6,30.36,North,351,9.6,9.6,31,0.00,,SKC,0.00,VWS V14.01,2013-02-16 18:58:00,
2013-02-16 13:00:00,57.7,26.6,30.36,NNW,332,8.3,8.3,30,0.00,,SKC,0.00,VWS V14.01,2013-02-16 19:00:00,
2013-02-16 13:02:00,57.6,26.2,30.35,NW,304,5.1,8.3,30,0.00,,SKC,0.00,VWS V14.01,2013-02-16 19:02:00,
2013-02-16 13:03:00,57.7,26.6,30.36,NNW,332,8.3,8.3,30,0.00,,SKC,0.00,VWS V14.01,2013-02-16 19:03:00,
2013-02-16 13:04:00,59.4,26.2,30.32,NW,306,4.5,11.0,28,0.00,,SKC,0.00,VWS V14.01,2013-02-16 19:04:00,
2013-02-16 13:06:00,59.5,26.6,30.32,West,268,1.8,4.5,28,0.00,,SKC,0.00,VWS V14.01,2013-02-16 19:06:00,
2013-02-16 13:08:00,58.5,26.5,30.35,WNW,299,5.6,6.3,29,0.00,,SKC,0.00,VWS V14.01,2013-02-16 19:08:00,
2013-02-16 13:10:00,60.1,26.7,30.31,NNE,14,9.4,9.4,28,0.00,,SKC,0.00,VWS V14.01,2013-02-16 19:10:00,
2013-02-16 13:12:00,59.2,26.0,30.31,North,4,9.6,9.6,28,0.00,,SKC,0.00,VWS V14.01,2013-02-16 19:12:00,
2013-02-16 13:13:00,58.6,27.8,30.35,West,266,2.2,6.3,31,0.00,,SKC,0.00,VWS V14.01,2013-02-16 19:13:00,
2013-02-16 13:14:00,59.2,26.1,30.31,North,5,4.9,9.6,28,0.00,,SKC,0.00,VWS V14.01,2013-02-16 19:14:00,
2013-02-16 13:16:00,59.2,26.5,30.31,NE,42,7.6,7.6,28,0.00,,SKC,0.00,VWS V14.01,2013-02-16 19:16:00,
2013-02-16 13:18:00,58.3,25.5,30.35,WNW,282,4.7,10.7,28,0.00,,SKC,0.00,VWS V14.01,2013-02-16 19:18:00,
2013-02-16 13:20:00,59.5,27.6,30.30,NW,326,4.7,9.0,29,0.00,,SKC,0.00,VWS V14.01,2013-02-16 19:20:00,
2013-02-16 13:23:00,58.3,26.4,30.34,NW,322,3.6,10.7,29,0.00,,SKC,0.00,VWS V14.01,2013-02-16 19:23:00,
2013-02-16 13:24:00,59.7,26.1,30.30,NW,325,11.0,11.0,28,0.00,,SKC,0.00,VWS V14.01,2013-02-16 19:24:00,
2013-02-16 13:26:00,59.5,26.7,30.30,NW,308,5.1,11.0,28,0.00,,SKC,0.00,VWS V14.01,2013-02-16 19:26:00,
2013-02-16 13:28:00,58.6,25.3,30.34,WNW,289,3.6,10.7,28,0.00,,SKC,0.00,VWS V14.01,2013-02-16 19:28:00,
2013-02-16 13:30:00,60.1,26.5,30.30,WNW,301,8.1,8.1,28,0.00,,SKC,0.00,VWS V14.01,2013-02-16 19:30:00,
2013-02-16 13:32:00,59.9,26.3,30.30,NW,309,2.9,8.1,28,0.00,,SKC,0.00,VWS V14.01,2013-02-16 19:32:00,
2013-02-16 13:33:00,58.5,26.8,30.34,West,280,3.8,10.7,30,0.00,,SKC,0.00,VWS V14.01,2013-02-16 19:33:00,
2013-02-16 13:34:00,60.1,26.5,30.30,WNW,297,4.9,4.9,28,0.00,,SKC,0.00,VWS V14.01,2013-02-16 19:34:00,
2013-02-16 13:36:00,60.4,28.1,30.30,WNW,296,5.1,5.1,29,0.00,,SKC,0.00,VWS V14.01,2013-02-16 19:36:00,
2013-02-16 13:38:00,58.8,25.6,30.33,NW,317,3.1,10.7,28,0.00,,SKC,0.00,VWS V14.01,2013-02-16 19:38:00,
2013-02-16 13:40:00,59.9,26.6,30.30,NNW,330,8.7,8.7,28,0.00,,SKC,0.00,VWS V14.01,2013-02-16 19:40:00,
2013-02-16 13:42:00,58.6,26.7,30.33,NNW,345,6.9,10.7,29,0.00,,SKC,0.00,VWS V14.01,2013-02-16 19:42:00,
2013-02-16 13:47:00,57.9,25.9,30.33,NNW,333,8.3,10.7,29,0.00,,SKC,0.00,VWS V14.01,2013-02-16 19:47:00,
2013-02-16 13:48:00,60.4,28.5,30.29,NNW,335,3.6,4.7,30,0.00,,SKC,0.00,VWS V14.01,2013-02-16 19:48:00,
2013-02-16 13:50:00,60.1,26.9,30.29,North,353,3.4,3.6,28,0.00,,SKC,0.00,VWS V14.01,2013-02-16 19:50:00,
2013-02-16 13:52:00,58.6,26.6,30.32,North,349,11.0,11.0,29,0.00,,SKC,0.00,VWS V14.01,2013-02-16 19:52:00,
2013-02-16 13:54:00,60.3,26.0,30.29,NW,318,6.3,6.3,27,0.00,,SKC,0.00,VWS V14.01,2013-02-16 19:54:00,
2013-02-16 13:56:00,60.3,28.8,30.29,NNW,334,3.6,6.3,30,0.00,,SKC,0.00,VWS V14.01,2013-02-16 19:56:00,
2013-02-16 13:57:00,59.4,26.0,30.32,WNW,301,4.7,11.0,28,0.00,,SKC,0.00,VWS V14.01,2013-02-16 19:57:00,
2013-02-16 13:58:00,61.0,27.2,30.29,NW,314,7.8,7.8,28,0.00,,SKC,0.00,VWS V14.01,2013-02-16 19:58:00,
2013-02-16 14:00:00,60.8,27.2,30.29,NNW,344,3.6,7.8,28,0.00,,SKC,0.00,VWS V14.01,2013-02-16 20:00:00,
2013-02-16 14:02:00,59.2,26.1,30.32,NNW,333,8.3,11.0,28,0.00,,SKC,0.00,VWS V14.01,2013-02-16 20:02:00,
2013-02-16 14:04:00,59.4,26.2,30.32,NW,306,4.5,11.0,28,0.00,,SKC,0.00,VWS V14.01,2013-02-16 20:04:00,
2013-02-16 14:06:00,59.5,26.6,30.32,West,268,1.8,4.5,28,0.00,,SKC,0.00,VWS V14.01,2013-02-16 20:06:00,
2013-02-16 14:07:00,59.5,26.6,30.32,West,268,1.8,4.5,28,0.00,,SKC,0.00,VWS V14.01,2013-02-16 20:07:00,
2013-02-16 14:08:00,60.1,27.8,30.32,NNW,330,5.4,5.4,29,0.00,,SKC,0.00,VWS V14.01,2013-02-16 20:08:00,
2013-02-16 14:10:00,60.1,26.7,30.31,NNE,14,9.4,9.4,28,0.00,,SKC,0.00,VWS V14.01,2013-02-16 20:10:00,
2013-02-16 14:12:00,60.1,26.7,30.31,NNE,14,9.4,9.4,28,0.00,,SKC,0.00,VWS V14.01,2013-02-16 20:12:00,
2013-02-16 14:14:00,59.2,26.1,30.31,North,5,4.9,9.6,28,0.00,,SKC,0.00,VWS V14.01,2013-02-16 20:14:00,
2013-02-16 14:16:00,59.2,26.5,30.31,NE,42,7.6,7.6,28,0.00,,SKC,0.00,VWS V14.01,2013-02-16 20:16:00,
2013-02-16 14:17:00,59.2,26.5,30.31,NE,42,7.6,7.6,28,0.00,,SKC,0.00,VWS V14.01,2013-02-16 20:17:00,
2013-02-16 14:18:00,59.2,27.3,30.30,NNW,347,9.0,9.0,29,0.00,,SKC,0.00,VWS V14.01,2013-02-16 20:18:00,
2013-02-16 14:20:00,59.5,27.6,30.30,NW,326,4.7,9.0,29,0.00,,SKC,0.00,VWS V14.01,2013-02-16 20:20:00,
2013-02-16 14:22:00,59.7,26.5,30.30,West,275,5.1,5.1,28,0.00,,SKC,0.00,VWS V14.01,2013-02-16 20:22:00,
2013-02-16 14:23:00,59.5,27.6,30.30,NW,326,4.7,9.0,29,0.00,,SKC,0.00,VWS V14.01,2013-02-16 20:23:00,
2013-02-16 14:24:00,59.7,26.1,30.30,NW,325,11.0,11.0,28,0.00,,SKC,0.00,VWS V14.01,2013-02-16 20:24:00,
2013-02-16 14:26:00,59.5,26.7,30.30,NW,308,5.1,11.0,28,0.00,,SKC,0.00,VWS V14.01,2013-02-16 20:26:00,
2013-02-16 14:28:00,59.5,26.7,30.30,NW,308,5.1,11.0,28,0.00,,SKC,0.00,VWS V14.01,2013-02-16 20:28:00,
2013-02-16 14:30:00,60.1,26.5,30.30,WNW,301,8.1,8.1,28,0.00,,SKC,0.00,VWS V14.01,2013-02-16 20:30:00,
2013-02-16 14:32:00,59.9,26.3,30.30,NW,309,2.9,8.1,28,0.00,,SKC,0.00,VWS V14.01,2013-02-16 20:32:00,
2013-02-16 14:33:00,60.1,26.5,30.30,WNW,301,8.1,8.1,28,0.00,,SKC,0.00,VWS V14.01,2013-02-16 20:33:00,
2013-02-16 14:34:00,60.1,26.5,30.30,WNW,297,4.9,4.9,28,0.00,,SKC,0.00,VWS V14.01,2013-02-16 20:34:00,
2013-02-16 14:36:00,60.4,28.1,30.30,WNW,296,5.1,5.1,29,0.00,,SKC,0.00,VWS V14.01,2013-02-16 20:36:00,
2013-02-16 14:37:00,60.4,28.1,30.30,WNW,296,5.1,5.1,29,0.00,,SKC,0.00,VWS V14.01,2013-02-16 20:37:00,
2013-02-16 14:38:00,60.4,26.9,30.30,North,5,6.5,6.5,28,0.00,,SKC,0.00,VWS V14.01,2013-02-16 20:38:00,
2013-02-16 14:40:00,59.9,26.6,30.30,NNW,330,8.7,8.7,28,0.00,,SKC,0.00,VWS V14.01,2013-02-16 20:40:00,
2013-02-16 14:42:00,59.9,26.6,30.30,NNW,330,8.7,8.7,28,0.00,,SKC,0.00,VWS V14.01,2013-02-16 20:42:00,
2013-02-16 14:44:00,59.9,27.7,30.29,North,349,6.3,6.3,29,0.00,,SKC,0.00,VWS V14.01,2013-02-16 20:44:00,
2013-02-16 14:46:00,60.3,27.9,30.30,NW,318,4.7,6.3,29,0.00,,SKC,0.00,VWS V14.01,2013-02-16 20:46:00,
2013-02-16 14:47:00,60.3,27.9,30.30,NW,318,4.7,6.3,29,0.00,,SKC,0.00,VWS V14.01,2013-02-16 20:47:00,
2013-02-16 14:48:00,60.4,28.5,30.29,NNW,335,3.6,4.7,30,0.00,,SKC,0.00,VWS V14.01,2013-02-16 20:48:00,
2013-02-16 14:50:00,60.1,26.9,30.29,North,353,3.4,3.6,28,0.00,,SKC,0.00,VWS V14.01,2013-02-16 20:50:00,
2013-02-16 14:52:00,60.1,26.9,30.29,North,353,3.4,3.6,28,0.00,,SKC,0.00,VWS V14.01,2013-02-16 20:52:00,
2013-02-16 14:54:00,60.3,26.0,30.29,NW,318,6.3,6.3,27,0.00,,SKC,0.00,VWS V14.01,2013-02-16 20:54:00,
2013-02-16 14:56:00,60.3,28.8,30.29,NNW,334,3.6,6.3,30,0.00,,SKC,0.00,VWS V14.01,2013-02-16 20:56:00,
2013-02-16 14:58:00,60.3,28.8,30.29,NNW,334,3.6,6.3,30,0.00,,SKC,0.00,VWS V14.01,2013-02-16 20:58:00,
2013-02-16 15:00:00,60.8,27.2,30.29,NNW,344,3.6,7.8,28,0.00,,SKC,0.00,VWS V14.01,2013-02-16 21:00:00,
2013-02-16 15:03:00,60.8,27.2,30.29,NNW,344,3.6,7.8,28,0.00,,SKC,0.00,VWS V14.01,2013-02-16 21:03:00,
2013-02-16 15:04:00,60.6,26.4,30.28,North,10,12.3,12.3,27,0.00,,SKC,0.00,VWS V14.01,2013-02-16 21:04:00,
2013-02-16 15:08:00,59.9,25.9,30.28,North,358,4.9,4.9,27,0.00,,SKC,0.00,VWS V14.01,2013-02-16 21:08:00,
2013-02-16 15:10:00,59.9,25.9,30.28,North,358,4.9,4.9,27,0.00,,SKC,0.00,VWS V14.01,2013-02-16 21:10:00,
2013-02-16 15:12:00,60.1,27.1,30.28,North,2,9.6,9.6,28,0.00,,SKC,0.00,VWS V14.01,2013-02-16 21:12:00,
2013-02-16 15:13:00,60.4,27.9,30.28,NNW,336,3.6,9.6,29,0.00,,SKC,0.00,VWS V14.01,2013-02-16 21:13:00,
2013-02-16 15:14:00,60.4,27.9,30.28,NNW,336,3.6,9.6,29,0.00,,SKC,0.00,VWS V14.01,2013-02-16 21:14:00,
2013-02-16 15:16:00,61.0,27.7,30.28,North,356,14.8,14.8,28,0.00,,SKC,0.00,VWS V14.01,2013-02-16 21:16:00,
2013-02-16 15:18:00,60.8,27.3,30.28,NW,315,6.7,8.1,28,0.00,,SKC,0.00,VWS V14.01,2013-02-16 21:18:00,
2013-02-16 15:20:00,60.8,27.3,30.28,NW,315,6.7,8.1,28,0.00,,SKC,0.00,VWS V14.01,2013-02-16 21:20:00,
2013-02-16 15:22:00,60.6,27.5,30.28,NW,326,9.2,9.2,28,0.00,,SKC,0.00,VWS V14.01,2013-02-16 21:22:00,
2013-02-16 15:23:00,60.8,27.7,30.28,NW,322,4.7,9.2,28,0.00,,SKC,0.00,VWS V14.01,2013-02-16 21:23:00,
2013-02-16 15:24:00,60.8,27.7,30.28,NW,322,4.7,9.2,28,0.00,,SKC,0.00,VWS V14.01,2013-02-16 21:24:00,
2013-02-16 15:26:00,60.6,26.5,30.28,North,357,3.8,4.7,27,0.00,,SKC,0.00,VWS V14.01,2013-02-16 21:26:00,
2013-02-16 15:28:00,60.4,26.5,30.28,NNE,21,1.3,4.5,27,0.00,,SKC,0.00,VWS V14.01,2013-02-16 21:28:00,
2013-02-16 15:30:00,60.4,26.5,30.28,NNE,21,1.3,4.5,27,0.00,,SKC,0.00,VWS V14.01,2013-02-16 21:30:00,
2013-02-16 15:32:00,60.8,28.5,30.27,West,271,2.2,2.2,29,0.00,,SKC,0.00,VWS V14.01,2013-02-16 21:32:00,
2013-02-16 15:33:00,61.3,28.7,30.27,North,2,2.0,3.8,29,0.00,,SKC,0.00,VWS V14.01,2013-02-16 21:33:00,
2013-02-16 15:34:00,61.3,28.7,30.27,North,2,2.0,3.8,29,0.00,,SKC,0.00,VWS V14.01,2013-02-16 21:34:00,
2013-02-16 15:36:00,61.9,28.6,30.27,West,264,2.7,2.7,28,0.00,,SKC,0.00,VWS V14.01,2013-02-16 21:36:00,
2013-02-16 15:38:00,62.6,28.6,30.27,West,266,4.3,4.3,28,0.00,,SKC,0.00,VWS V14.01,2013-02-16 21:38:00,
2013-02-16 15:40:00,62.6,28.6,30.27,West,266,4.3,4.3,28,0.00,,SKC,0.00,VWS V14.01,2013-02-16 21:40:00,
2013-02-16 15:42:00,62.4,28.6,30.27,SW,232,3.6,4.3,28,0.00,,SKC,0.00,VWS V14.01,2013-02-16 21:42:00,
2013-02-16 15:43:00,62.2,27.2,30.27,NNW,346,3.6,3.6,26,0.00,,SKC,0.00,VWS V14.01,2013-02-16 21:43:00,
2013-02-16 15:44:00,62.2,27.2,30.27,NNW,346,3.6,3.6,26,0.00,,SKC,0.00,VWS V14.01,2013-02-16 21:44:00,
2013-02-16 15:46:00,62.1,27.4,30.27,NNW,339,0.7,3.6,27,0.00,,SKC,0.00,VWS V14.01,2013-02-16 21:46:00,
2013-02-16 15:48:00,62.2,28.7,30.27,NNW,339,4.7,4.7,28,0.00,,SKC,0.00,VWS V14.01,2013-02-16 21:48:00,
2013-02-16 15:50:00,62.2,28.7,30.27,NNW,339,4.7,4.7,28,0.00,,SKC,0.00,VWS V14.01,2013-02-16 21:50:00,
2013-02-16 15:52:00,62.1,27.7,30.26,NNE,19,4.0,4.7,27,0.00,,SKC,0.00,VWS V14.01,2013-02-16 21:52:00,
2013-02-16 15:53:00,61.2,27.5,30.26,North,357,8.3,8.3,28,0.00,,SKC,0.00,VWS V14.01,2013-02-16 21:53:00,
2013-02-16 15:54:00,61.5,27.8,30.26,NW,321,5.4,5.4,28,0.00,,SKC,0.00,VWS V14.01,2013-02-16 21:54:00,
2013-02-16 15:56:00,61.2,27.5,30.26,North,357,8.3,8.3,28,0.00,,SKC,0.00,VWS V14.01,2013-02-16 21:56:00,
2013-02-16 15:58:00,61.0,27.4,30.26,North,9,6.9,6.9,28,0.00,,SKC,0.00,VWS V14.01,2013-02-16 21:58:00,
2013-02-16 16:00:00,61.0,27.4,30.26,North,9,6.9,6.9,28,0.00,,SKC,0.00,VWS V14.01,2013-02-16 22:00:00,
2013-02-16 16:02:00,61.5,27.5,30.25,West,259,2.9,7.2,27,0.00,,SKC,0.00,VWS V14.01,2013-02-16 22:02:00,
2013-02-16 16:03:00,61.2,28.5,30.26,West,279,2.0,6.9,29,0.00,,SKC,0.00,VWS V14.01,2013-02-16 22:03:00,
2013-02-16 16:04:00,60.6,26.4,30.28,North,10,12.3,12.3,27,0.00,,SKC,0.00,VWS V14.01,2013-02-16 22:04:00,
2013-02-16 16:06:00,61.3,29.2,30.25,SW,216,0.7,2.5,29,0.00,,SKC,0.00,VWS V14.01,2013-02-16 22:06:00,
2013-02-16 16:08:00,61.9,27.5,30.26,NW,321,6.0,6.9,27,0.00,,SKC,0.00,VWS V14.01,2013-02-16 22:08:00,
2013-02-16 16:10:00,59.9,25.9,30.28,North,358,4.9,4.9,27,0.00,,SKC,0.00,VWS V14.01,2013-02-16 22:10:00,
2013-02-16 16:12:00,60.1,27.1,30.28,North,2,9.6,9.6,28,0.00,,SKC,0.00,VWS V14.01,2013-02-16 22:12:00,
2013-02-16 16:13:00,62.1,27.7,30.26,West,271,2.9,6.9,27,0.00,,SKC,0.00,VWS V14.01,2013-02-16 22:13:00,
2013-02-16 16:14:00,60.4,27.9,30.28,NNW,336,3.6,9.6,29,0.00,,SKC,0.00,VWS V14.01,2013-02-16 22:14:00,
2013-02-16 16:16:00,61.0,27.7,30.28,North,356,14.8,14.8,28,0.00,,SKC,0.00,VWS V14.01,2013-02-16 22:16:00,
2013-02-16 16:18:00,61.9,28.9,30.26,WNW,294,2.0,6.9,28,0.00,,SKC,0.00,VWS V14.01,2013-02-16 22:18:00,
2013-02-16 16:20:00,60.8,27.3,30.28,NW,315,6.7,8.1,28,0.00,,SKC,0.00,VWS V14.01,2013-02-16 22:20:00,
2013-02-16 16:22:00,60.6,27.5,30.28,NW,326,9.2,9.2,28,0.00,,SKC,0.00,VWS V14.01,2013-02-16 22:22:00,
2013-02-16 16:23:00,62.1,28.5,30.26,NNW,344,4.7,6.9,28,0.00,,SKC,0.00,VWS V14.01,2013-02-16 22:23:00,
2013-02-16 16:24:00,60.8,27.7,30.28,NW,322,4.7,9.2,28,0.00,,SKC,0.00,VWS V14.01,2013-02-16 22:24:00,
2013-02-16 16:26:00,60.6,26.5,30.28,North,357,3.8,4.7,27,0.00,,SKC,0.00,VWS V14.01,2013-02-16 22:26:00,
2013-02-16 16:28:00,61.0,27.1,30.25,North,10,7.2,7.2,27,0.00,,SKC,0.00,VWS V14.01,2013-02-16 22:28:00,
2013-02-16 16:30:00,60.4,26.5,30.28,NNE,21,1.3,4.5,27,0.00,,SKC,0.00,VWS V14.01,2013-02-16 22:30:00,
2013-02-16 16:32:00,60.8,28.5,30.27,West,271,2.2,2.2,29,0.00,,SKC,0.00,VWS V14.01,2013-02-16 22:32:00,
2013-02-16 16:33:00,61.2,27.8,30.25,NW,323,1.3,7.2,28,0.00,,SKC,0.00,VWS V14.01,2013-02-16 22:33:00,
2013-02-16 16:34:00,61.3,28.7,30.27,North,2,2.0,3.8,29,0.00,,SKC,0.00,VWS V14.01,2013-02-16 22:34:00,
2013-02-16 16:36:00,61.9,28.6,30.27,West,264,2.7,2.7,28,0.00,,SKC,0.00,VWS V14.01,2013-02-16 22:36:00,
2013-02-16 16:38:00,61.7,29.0,30.25,NNW,335,5.4,7.2,29,0.00,,SKC,0.00,VWS V14.01,2013-02-16 22:38:00,
2013-02-16 16:40:00,62.6,28.6,30.27,West,266,4.3,4.3,28,0.00,,SKC,0.00,VWS V14.01,2013-02-16 22:40:00,
2013-02-16 16:42:00,62.4,28.6,30.27,SW,232,3.6,4.3,28,0.00,,SKC,0.00,VWS V14.01,2013-02-16 22:42:00,
2013-02-16 16:43:00,61.5,27.2,30.25,NNW,327,6.5,7.2,27,0.00,,SKC,0.00,VWS V14.01,2013-02-16 22:43:00,
2013-02-16 16:44:00,62.2,27.2,30.27,NNW,346,3.6,3.6,26,0.00,,SKC,0.00,VWS V14.01,2013-02-16 22:44:00,
2013-02-16 16:46:00,62.1,27.4,30.27,NNW,339,0.7,3.6,27,0.00,,SKC,0.00,VWS V14.01,2013-02-16 22:46:00,
2013-02-16 16:48:00,61.3,28.7,30.25,NNE,12,3.1,7.2,29,0.00,,SKC,0.00,VWS V14.01,2013-02-16 22:48:00,
2013-02-16 16:50:00,62.2,28.7,30.27,NNW,339,4.7,4.7,28,0.00,,SKC,0.00,VWS V14.01,2013-02-16 22:50:00,
2013-02-16 16:52:00,62.1,27.7,30.27,NNE,19,4.0,4.7,27,0.00,,SKC,0.00,VWS V14.01,2013-02-16 22:52:00,
2013-02-16 16:53:00,61.3,28.4,30.25,West,278,1.8,7.2,28,0.00,,SKC,0.00,VWS V14.01,2013-02-16 22:53:00,
2013-02-16 16:54:00,61.5,27.8,30.26,NW,321,5.4,5.4,28,0.00,,SKC,0.00,VWS V14.01,2013-02-16 22:54:00,
2013-02-16 16:56:00,61.2,27.5,30.26,North,357,8.3,8.3,28,0.00,,SKC,0.00,VWS V14.01,2013-02-16 22:56:00,
2013-02-16 16:58:00,61.5,27.8,30.25,West,272,3.1,7.2,28,0.00,,SKC,0.00,VWS V14.01,2013-02-16 22:58:00,
2013-02-16 17:00:00,61.0,27.4,30.26,North,9,6.9,6.9,28,0.00,,SKC,0.00,VWS V14.01,2013-02-16 23:00:00,
2013-02-16 17:02:00,61.5,27.5,30.24,West,259,2.9,7.2,27,0.00,,SKC,0.00,VWS V14.01,2013-02-16 23:02:00,
2013-02-16 17:03:00,61.5,27.7,30.24,WNW,302,1.1,7.2,28,0.00,,SKC,0.00,VWS V14.01,2013-02-16 23:03:00,
2013-02-16 17:04:00,61.5,28.5,30.24,WNW,303,2.5,2.9,28,0.00,,SKC,0.00,VWS V14.01,2013-02-16 23:04:00,
2013-02-16 17:06:00,61.3,29.2,30.24,SW,216,0.7,2.5,29,0.00,,SKC,0.00,VWS V14.01,2013-02-16 23:06:00,
2013-02-16 17:08:00,61.3,29.2,30.24,SW,216,0.7,2.5,29,0.00,,SKC,0.00,VWS V14.01,2013-02-16 23:08:00,
2013-02-16 17:10:00,61.5,28.0,30.24,NW,309,3.1,3.1,28,0.00,,SKC,0.00,VWS V14.01,2013-02-16 23:10:00,
2013-02-16 17:12:00,61.3,28.1,30.24,NNW,328,3.1,3.1,28,0.00,,SKC,0.00,VWS V14.01,2013-02-16 23:12:00,
2013-02-16 17:13:00,61.5,28.0,30.24,NW,309,3.1,3.1,28,0.00,,SKC,0.00,VWS V14.01,2013-02-16 23:13:00,
2013-02-16 17:14:00,61.2,27.8,30.24,NW,308,4.0,4.0,28,0.00,,SKC,0.00,VWS V14.01,2013-02-16 23:14:00,
2013-02-16 17:16:00,61.2,28.1,30.24,NNW,347,5.1,5.1,28,0.00,,SKC,0.00,VWS V14.01,2013-02-16 23:16:00,
2013-02-16 17:18:00,61.2,28.1,30.24,NNW,347,5.1,5.1,28,0.00,,SKC,0.00,VWS V14.01,2013-02-16 23:18:00,
2013-02-16 17:20:00,61.0,28.4,30.24,North,358,4.7,4.7,29,0.00,,SKC,0.00,VWS V14.01,2013-02-16 23:20:00,
2013-02-16 17:22:00,61.0,28.3,30.24,NNW,342,5.4,5.4,29,0.00,,SKC,0.00,VWS V14.01,2013-02-16 23:22:00,
2013-02-16 17:23:00,61.0,28.4,30.24,North,358,4.7,4.7,29,0.00,,SKC,0.00,VWS V14.01,2013-02-16 23:23:00,
2013-02-16 17:24:00,61.0,28.4,30.24,NNW,327,5.6,5.6,29,0.00,,SKC,0.00,VWS V14.01,2013-02-16 23:24:00,
2013-02-16 17:26:00,61.0,28.3,30.24,NW,312,2.2,5.6,29,0.00,,SKC,0.00,VWS V14.01,2013-02-16 23:26:00,
2013-02-16 17:28:00,61.0,28.3,30.24,NW,312,2.2,5.6,29,0.00,,SKC,0.00,VWS V14.01,2013-02-16 23:28:00,
2013-02-16 17:30:00,61.2,28.9,30.24,West,281,2.2,2.2,29,0.00,,SKC,0.00,VWS V14.01,2013-02-16 23:30:00,
2013-02-16 17:32:00,61.2,28.3,30.24,NNW,339,1.8,2.2,28,0.00,,SKC,0.00,VWS V14.01,2013-02-16 23:32:00,
2013-02-16 17:33:00,61.2,28.3,30.24,NNW,339,1.8,2.2,28,0.00,,SKC,0.00,VWS V14.01,2013-02-16 23:33:00,
2013-02-16 17:34:00,61.2,28.9,30.24,South,191,0.4,1.8,29,0.00,,SKC,0.00,VWS V14.01,2013-02-16 23:34:00,
2013-02-16 17:36:00,61.2,27.8,30.24,SSW,212,1.8,1.8,28,0.00,,SKC,0.00,VWS V14.01,2013-02-16 23:36:00,
2013-02-16 17:38:00,61.2,27.8,30.24,SSW,212,1.8,1.8,28,0.00,,SKC,0.00,VWS V14.01,2013-02-16 23:38:00,
2013-02-16 17:40:00,61.0,28.1,30.24,SW,231,1.1,1.3,28,0.00,,SKC,0.00,VWS V14.01,2013-02-16 23:40:00,
2013-02-16 17:42:00,61.0,28.2,30.24,SW,230,0.9,1.1,29,0.00,,SKC,0.00,VWS V14.01,2013-02-16 23:42:00,
2013-02-16 17:43:00,61.0,28.1,30.24,SW,231,1.1,1.3,28,0.00,,SKC,0.00,VWS V14.01,2013-02-16 23:43:00,
2013-02-16 17:44:00,60.8,28.4,30.24,WSW,249,0.9,0.9,29,0.00,,SKC,0.00,VWS V14.01,2013-02-16 23:44:00,
2013-02-16 17:46:00,60.8,27.9,30.24,South,187,2.2,2.2,28,0.00,,SKC,0.00,VWS V14.01,2013-02-16 23:46:00,
2013-02-16 17:48:00,60.8,27.9,30.24,South,187,2.2,2.2,28,0.00,,SKC,0.00,VWS V14.01,2013-02-16 23:48:00,
2013-02-16 17:50:00,60.6,27.5,30.24,SSW,211,2.2,3.1,28,0.00,,SKC,0.00,VWS V14.01,2013-02-16 23:50:00,
2013-02-16 17:52:00,60.4,27.6,30.24,SSW,209,2.2,2.2,28,0.00,,SKC,0.00,VWS V14.01,2013-02-16 23:52:00,
2013-02-16 17:53:00,60.6,27.5,30.24,SSW,211,2.2,3.1,28,0.00,,SKC,0.00,VWS V14.01,2013-02-16 23:53:00,
2013-02-16 17:54:00,60.4,28.7,30.24,SW,219,1.8,2.2,30,0.00,,SKC,0.00,VWS V14.01,2013-02-16 23:54:00,
2013-02-16 17:56:00,60.3,28.2,30.24,SW,220,2.2,2.2,29,0.00,,SKC,0.00,VWS V14.01,2013-02-16 23:56:00,
2013-02-16 17:58:00,60.3,28.2,30.24,SW,220,2.2,2.2,29,0.00,,SKC,0.00,VWS V14.01,2013-02-16 23:58:00,
2013-02-16 18:00:00,60.1,28.5,30.24,SSE,161,1.6,1.8,30,0.00,,SKC,0.00,VWS V14.01,2013-02-17 00:00:00,
2013-02-16 18:02:00,59.9,28.7,30.24,East,95,0.7,1.6,30,0.00,,SKC,0.00,VWS V14.01,2013-02-17 00:02:00,
2013-02-16 18:03:00,60.1,28.5,30.24,SSE,161,1.6,1.8,30,0.00,,SKC,0.00,VWS V14.01,2013-02-17 00:03:00,
2013-02-16 18:04:00,59.5,28.5,30.24,ENE,64,0.7,0.7,30,0.00,,SKC,0.00,VWS V14.01,2013-02-17 00:04:00,
2013-02-16 18:06:00,59.4,27.9,30.24,WNW,294,0.4,0.7,30,0.00,,SKC,0.00,VWS V14.01,2013-02-17 00:06:00,
2013-02-16 18:08:00,59.4,27.9,30.24,WNW,294,0.4,0.7,30,0.00,,SKC,0.00,VWS V14.01,2013-02-17 00:08:00,
2013-02-16 18:10:00,59.0,28.0,30.24,South,182,0.7,0.7,30,0.00,,SKC,0.00,VWS V14.01,2013-02-17 00:10:00,
2013-02-16 18:12:00,58.8,29.1,30.24,South,188,1.3,1.3,32,0.00,,SKC,0.00,VWS V14.01,2013-02-17 00:12:00,
2013-02-16 18:13:00,59.0,28.0,30.24,South,182,0.7,0.7,30,0.00,,SKC,0.00,VWS V14.01,2013-02-17 00:13:00,
2013-02-16 18:14:00,58.6,27.2,30.24,South,184,2.2,2.2,30,0.00,,SKC,0.00,VWS V14.01,2013-02-17 00:14:00,
2013-02-16 18:16:00,58.8,27.1,30.24,South,187,3.6,3.6,30,0.00,,SKC,0.00,VWS V14.01,2013-02-17 00:16:00,
2013-02-16 18:18:00,58.8,27.1,30.24,South,187,3.6,3.6,30,0.00,,SKC,0.00,VWS V14.01,2013-02-17 00:18:00,
2013-02-16 18:20:00,59.2,27.2,30.24,SSW,195,3.4,3.8,29,0.00,,SKC,0.00,VWS V14.01,2013-02-17 00:20:00,
2013-02-16 18:22:00,59.0,27.4,30.24,SSW,195,3.4,3.4,30,0.00,,SKC,0.00,VWS V14.01,2013-02-17 00:22:00,
2013-02-16 18:23:00,59.2,27.2,30.24,SSW,195,3.4,3.8,29,0.00,,SKC,0.00,VWS V14.01,2013-02-17 00:23:00,
2013-02-16 18:24:00,58.8,26.9,30.24,South,183,2.2,3.4,29,0.00,,SKC,0.00,VWS V14.01,2013-02-17 00:24:00,
2013-02-16 18:26:00,58.8,27.0,30.24,SSE,162,2.2,2.2,29,0.00,,SKC,0.00,VWS V14.01,2013-02-17 00:26:00,
2013-02-16 18:28:00,58.8,27.0,30.24,SSE,162,2.2,2.2,29,0.00,,SKC,0.00,VWS V14.01,2013-02-17 00:28:00,
2013-02-16 18:30:00,57.7,29.3,30.24,North,2,1.3,1.3,34,0.00,,SKC,0.00,VWS V14.01,2013-02-17 00:30:00,
2013-02-16 18:32:00,57.0,28.7,30.24,North,11,0.9,1.3,34,0.00,,SKC,0.00,VWS V14.01,2013-02-17 00:32:00,
2013-02-16 18:33:00,57.7,29.3,30.24,North,2,1.3,1.3,34,0.00,,SKC,0.00,VWS V14.01,2013-02-17 00:33:00,
2013-02-16 18:34:00,56.5,28.6,30.24,West,274,0.7,0.9,34,0.00,,SKC,0.00,VWS V14.01,2013-02-17 00:34:00,
2013-02-16 18:36:00,55.9,29.5,30.24,SW,227,1.8,1.8,36,0.00,,SKC,0.00,VWS V14.01,2013-02-17 00:36:00,
2013-02-16 18:38:00,55.9,29.5,30.24,SW,227,1.8,1.8,36,0.00,,SKC,0.00,VWS V14.01,2013-02-17 00:38:00,
2013-02-16 18:40:00,55.0,29.3,30.24,SW,222,1.8,1.8,37,0.00,,SKC,0.00,VWS V14.01,2013-02-17 00:40:00,
2013-02-16 18:42:00,55.0,29.3,30.24,SW,222,1.8,1.8,37,0.00,,SKC,0.00,VWS V14.01,2013-02-17 00:42:00,
2013-02-16 18:44:00,54.1,28.1,30.24,SSW,197,0.9,1.6,36,0.00,,SKC,0.00,VWS V14.01,2013-02-17 00:44:00,
2013-02-16 18:46:00,54.0,27.4,30.24,SSE,163,2.2,2.2,36,0.00,,SKC,0.00,VWS V14.01,2013-02-17 00:46:00,
2013-02-16 18:47:00,54.0,27.4,30.24,SSE,163,2.2,2.2,36,0.00,,SKC,0.00,VWS V14.01,2013-02-17 00:47:00,
2013-02-16 18:48:00,54.7,27.0,30.24,SSE,158,2.2,2.2,34,0.00,,SKC,0.00,VWS V14.01,2013-02-17 00:48:00,
2013-02-16 18:50:00,55.6,27.2,30.24,South,179,1.1,2.2,33,0.00,,SKC,0.00,VWS V14.01,2013-02-17 00:50:00,
2013-02-16 18:52:00,55.6,27.2,30.24,South,179,1.1,2.2,33,0.00,,SKC,0.00,VWS V14.01,2013-02-17 00:52:00,
2013-02-16 18:54:00,54.9,30.6,30.24,WSW,243,2.5,2.5,39,0.00,,SKC,0.00,VWS V14.01,2013-02-17 00:54:00,
2013-02-16 18:56:00,53.6,31.7,30.24,WSW,238,2.5,2.5,43,0.00,,SKC,0.00,VWS V14.01,2013-02-17 00:56:00,
2013-02-16 18:57:00,53.6,31.7,30.24,WSW,238,2.5,2.5,43,0.00,,SKC,0.00,VWS V14.01,2013-02-17 00:57:00,
2013-02-16 18:58:00,52.3,30.6,30.24,SW,225,2.2,2.5,43,0.00,,SKC,0.00,VWS V14.01,2013-02-17 00:58:00,
2013-02-16 19:00:00,51.8,29.2,30.24,SSW,201,2.9,2.9,42,0.00,,SKC,0.00,VWS V14.01,2013-02-17 01:00:00,
2013-02-16 19:02:00,51.8,29.2,30.24,SSW,201,2.9,2.9,42,0.00,,SKC,0.00,VWS V14.01,2013-02-17 01:02:00,
2013-02-16 19:04:00,53.2,27.4,30.24,South,185,5.4,5.4,37,0.00,,SKC,0.00,VWS V14.01,2013-02-17 01:04:00,
2013-02-16 19:06:00,54.9,29.4,30.24,SSW,194,4.3,5.4,37,0.00,,SKC,0.00,VWS V14.01,2013-02-17 01:06:00,
2013-02-16 19:07:00,54.9,29.4,30.24,SSW,194,4.3,5.4,37,0.00,,SKC,0.00,VWS V14.01,2013-02-17 01:07:00,
2013-02-16 19:08:00,54.5,27.8,30.24,South,184,4.7,4.7,36,0.00,,SKC,0.00,VWS V14.01,2013-02-17 01:08:00,
2013-02-16 19:10:00,55.0,27.9,30.24,South,181,4.7,4.7,35,0.00,,SKC,0.00,VWS V14.01,2013-02-17 01:10:00,
2013-02-16 19:12:00,55.0,27.9,30.24,South,181,4.7,4.7,35,0.00,,SKC,0.00,VWS V14.01,2013-02-17 01:12:00,
2013-02-16 19:14:00,54.7,30.5,30.24,SSW,202,2.0,2.9,39,0.00,,SKC,0.00,VWS V14.01,2013-02-17 01:14:00,
2013-02-16 19:16:00,53.4,29.8,30.24,SW,218,2.0,2.0,40,0.00,,SKC,0.00,VWS V14.01,2013-02-17 01:16:00,
2013-02-16 19:17:00,53.4,29.8,30.24,SW,218,2.0,2.0,40,0.00,,SKC,0.00,VWS V14.01,2013-02-17 01:17:00,
2013-02-16 19:18:00,52.5,32.0,30.24,SW,230,2.2,2.2,45,0.00,,SKC,0.00,VWS V14.01,2013-02-17 01:18:00,
2013-02-16 19:20:00,51.6,31.0,30.24,SW,222,1.6,2.2,45,0.00,,SKC,0.00,VWS V14.01,2013-02-17 01:20:00,
2013-02-16 19:22:00,51.6,31.0,30.24,SW,222,1.6,2.2,45,0.00,,SKC,0.00,VWS V14.01,2013-02-17 01:22:00,
2013-02-16 19:24:00,50.4,32.5,30.24,WSW,245,2.2,2.2,50,0.00,,SKC,0.00,VWS V14.01,2013-02-17 01:24:00,
2013-02-16 19:26:00,49.8,32.5,30.24,SW,229,2.9,2.9,51,0.00,,SKC,0.00,VWS V14.01,2013-02-17 01:26:00,
2013-02-16 19:27:00,49.8,32.5,30.24,SW,229,2.9,2.9,51,0.00,,SKC,0.00,VWS V14.01,2013-02-17 01:27:00,
2013-02-16 19:28:00,49.3,32.1,30.24,SW,229,2.7,2.9,51,0.00,,SKC,0.00,VWS V14.01,2013-02-17 01:28:00,
2013-02-16 19:30:00,48.9,31.5,30.24,SW,225,1.8,2.7,51,0.00,,SKC,0.00,VWS V14.01,2013-02-17 01:30:00,
2013-02-16 19:32:00,48.9,31.5,30.24,SW,225,1.8,2.7,51,0.00,,SKC,0.00,VWS V14.01,2013-02-17 01:32:00,
2013-02-16 19:34:00,48.7,32.0,30.24,SW,234,2.2,2.5,52,0.00,,SKC,0.00,VWS V14.01,2013-02-17 01:34:00,
2013-02-16 19:36:00,48.6,32.5,30.24,SW,228,2.7,2.7,54,0.00,,SKC,0.00,VWS V14.01,2013-02-17 01:36:00,
2013-02-16 19:37:00,48.6,32.5,30.24,SW,228,2.7,2.7,54,0.00,,SKC,0.00,VWS V14.01,2013-02-17 01:37:00,
2013-02-16 19:38:00,48.4,32.0,30.24,SW,236,2.7,2.7,53,0.00,,SKC,0.00,VWS V14.01,2013-02-17 01:38:00,
2013-02-16 19:40:00,48.4,31.3,30.24,SW,233,2.9,2.9,52,0.00,,SKC,0.00,VWS V14.01,2013-02-17 01:40:00,
2013-02-16 19:42:00,48.4,31.3,30.24,SW,233,2.9,2.9,52,0.00,,SKC,0.00,VWS V14.01,2013-02-17 01:42:00,
2013-02-16 19:44:00,49.1,30.0,30.24,SSW,204,4.5,4.5,47,0.00,,SKC,0.00,VWS V14.01,2013-02-17 01:44:00,
2013-02-16 19:46:00,50.0,29.8,30.24,SSW,212,3.4,4.5,46,0.00,,SKC,0.00,VWS V14.01,2013-02-17 01:46:00,
2013-02-16 19:47:00,50.0,29.8,30.24,SSW,212,3.4,4.5,46,0.00,,SKC,0.00,VWS V14.01,2013-02-17 01:47:00,
2013-02-16 19:48:00,50.5,29.9,30.24,SW,226,3.1,3.4,45,0.00,,SKC,0.00,VWS V14.01,2013-02-17 01:48:00,
2013-02-16 19:50:00,50.5,30.5,30.24,SW,228,4.3,4.3,46,0.00,,SKC,0.00,VWS V14.01,2013-02-17 01:50:00,
2013-02-16 19:52:00,50.5,30.5,30.24,SW,228,4.3,4.3,46,0.00,,SKC,0.00,VWS V14.01,2013-02-17 01:52:00,
2013-02-16 19:54:00,50.5,30.0,30.24,SW,220,4.3,4.5,45,0.00,,SKC,0.00,VWS V14.01,2013-02-17 01:54:00,
2013-02-16 19:56:00,50.7,29.5,30.24,SW,220,5.8,5.8,44,0.00,,SKC,0.00,VWS V14.01,2013-02-17 01:56:00,
2013-02-16 19:57:00,50.7,29.5,30.24,SW,220,5.8,5.8,44,0.00,,SKC,0.00,VWS V14.01,2013-02-17 01:57:00,
2013-02-16 19:58:00,51.3,30.0,30.24,SW,224,3.8,5.8,44,0.00,,SKC,0.00,VWS V14.01,2013-02-17 01:58:00,
2013-02-16 20:00:00,51.4,29.4,30.24,SW,219,4.0,4.0,42,0.00,,SKC,0.00,VWS V14.01,2013-02-17 02:00:00,
2013-02-16 20:02:00,51.4,29.4,30.24,SW,219,4.0,4.0,42,0.00,,SKC,0.00,VWS V14.01,2013-02-17 02:02:00,
2013-02-16 20:04:00,51.8,29.6,30.24,SW,222,4.0,4.0,42,0.00,,SKC,0.00,VWS V14.01,2013-02-17 02:04:00,
2013-02-16 20:06:00,51.6,29.8,30.24,SW,225,4.0,4.0,43,0.00,,SKC,0.00,VWS V14.01,2013-02-17 02:06:00,
2013-02-16 20:07:00,51.6,29.8,30.24,SW,225,4.0,4.0,43,0.00,,SKC,0.00,VWS V14.01,2013-02-17 02:07:00,
2013-02-16 20:08:00,51.4,30.3,30.24,SW,228,3.4,4.0,44,0.00,,SKC,0.00,VWS V14.01,2013-02-17 02:08:00,
2013-02-16 20:10:00,51.1,30.2,30.24,SW,225,3.6,3.6,44,0.00,,SKC,0.00,VWS V14.01,2013-02-17 02:10:00,
2013-02-16 20:12:00,51.1,30.2,30.24,SW,225,3.6,3.6,44,0.00,,SKC,0.00,VWS V14.01,2013-02-17 02:12:00,
2013-02-16 20:14:00,50.7,29.4,30.24,SSW,211,2.9,3.4,44,0.00,,SKC,0.00,VWS V14.01,2013-02-17 02:14:00,
2013-02-16 20:16:00,50.7,29.4,30.24,SW,224,2.7,2.9,44,0.00,,SKC,0.00,VWS V14.01,2013-02-17 02:16:00,
2013-02-16 20:17:00,50.7,29.4,30.24,SW,224,2.7,2.9,44,0.00,,SKC,0.00,VWS V14.01,2013-02-17 02:17:00,
2013-02-16 20:18:00,50.7,29.8,30.24,SW,224,3.6,3.6,44,0.00,,SKC,0.00,VWS V14.01,2013-02-17 02:18:00,
2013-02-16 20:20:00,50.5,30.0,30.24,SW,226,3.1,3.6,45,0.00,,SKC,0.00,VWS V14.01,2013-02-17 02:20:00,
2013-02-16 20:22:00,50.5,30.0,30.24,SW,226,3.1,3.6,45,0.00,,SKC,0.00,VWS V14.01,2013-02-17 02:22:00,
2013-02-16 20:24:00,50.5,29.7,30.24,SW,218,3.6,3.8,44,0.00,,SKC,0.00,VWS V14.01,2013-02-17 02:24:00,
2013-02-16 20:26:00,50.5,30.0,30.24,SW,227,3.1,3.6,45,0.00,,SKC,0.00,VWS V14.01,2013-02-17 02:26:00,
2013-02-16 20:27:00,50.5,30.0,30.24,SW,227,3.1,3.6,45,0.00,,SKC,0.00,VWS V14.01,2013-02-17 02:27:00,
2013-02-16 20:28:00,50.4,29.8,30.24,SW,224,3.8,3.8,45,0.00,,SKC,0.00,VWS V14.01,2013-02-17 02:28:00,
2013-02-16 20:30:00,50.4,29.8,30.24,SW,227,2.9,3.8,45,0.00,,SKC,0.00,VWS V14.01,2013-02-17 02:30:00,
2013-02-16 20:32:00,50.4,29.8,30.24,SW,227,2.9,3.8,45,0.00,,SKC,0.00,VWS V14.01,2013-02-17 02:32:00,
2013-02-16 20:34:00,50.2,29.8,30.24,SW,230,2.5,3.4,45,0.00,,SKC,0.00,VWS V14.01,2013-02-17 02:34:00,
2013-02-16 20:36:00,50.0,30.4,30.24,SW,226,3.1,3.1,47,0.00,,SKC,0.00,VWS V14.01,2013-02-17 02:36:00,
2013-02-16 20:37:00,50.0,30.4,30.24,SW,226,3.1,3.1,47,0.00,,SKC,0.00,VWS V14.01,2013-02-17 02:37:00,
2013-02-16 20:38:00,49.6,30.5,30.24,SW,223,4.0,4.0,47,0.00,,SKC,0.00,VWS V14.01,2013-02-17 02:38:00,
2013-02-16 20:40:00,49.3,30.2,30.24,SW,224,4.5,4.5,48,0.00,,SKC,0.00,VWS V14.01,2013-02-17 02:40:00,
2013-02-16 20:42:00,49.3,30.2,30.24,SW,224,4.5,4.5,48,0.00,,SKC,0.00,VWS V14.01,2013-02-17 02:42:00,
2013-02-16 20:44:00,49.5,29.6,30.24,SW,218,4.3,4.3,46,0.00,,SKC,0.00,VWS V14.01,2013-02-17 02:44:00,
2013-02-16 20:46:00,49.8,29.4,30.24,SW,219,3.4,4.3,45,0.00,,SKC,0.00,VWS V14.01,2013-02-17 02:46:00,
2013-02-16 20:47:00,49.8,29.4,30.24,SW,219,3.4,4.3,45,0.00,,SKC,0.00,VWS V14.01,2013-02-17 02:47:00,
2013-02-16 20:48:00,50.0,29.5,30.24,SW,226,3.4,3.4,45,0.00,,SKC,0.00,VWS V14.01,2013-02-17 02:48:00,
2013-02-16 20:50:00,50.0,29.1,30.24,SW,221,3.8,3.8,44,0.00,,SKC,0.00,VWS V14.01,2013-02-17 02:50:00,
2013-02-16 20:52:00,50.0,29.1,30.24,SW,221,3.8,3.8,44,0.00,,SKC,0.00,VWS V14.01,2013-02-17 02:52:00,
2013-02-16 20:54:00,49.8,29.6,30.24,SW,227,3.1,3.1,46,0.00,,SKC,0.00,VWS V14.01,2013-02-17 02:54:00,
2013-02-16 20:56:00,49.5,29.2,30.24,SW,218,4.3,4.3,45,0.00,,SKC,0.00,VWS V14.01,2013-02-17 02:56:00,
2013-02-16 20:57:00,49.5,29.2,30.24,SW,218,4.3,4.3,45,0.00,,SKC,0.00,VWS V14.01,2013-02-17 02:57:00,
2013-02-16 20:58:00,49.6,29.2,30.24,SW,226,3.6,4.3,45,0.00,,SKC,0.00,VWS V14.01,2013-02-17 02:58:00,
2013-02-16 21:00:00,49.8,29.3,30.24,SW,224,3.8,3.8,45,0.00,,SKC,0.00,VWS V14.01,2013-02-17 03:00:00,
2013-02-16 21:02:00,50.0,29.4,30.25,SW,224,3.6,3.8,45,0.00,,SKC,0.00,VWS V14.01,2013-02-17 03:02:00,
2013-02-16 21:03:00,49.8,29.3,30.24,SW,224,3.8,3.8,45,0.00,,SKC,0.00,VWS V14.01,2013-02-17 03:03:00,
2013-02-16 21:04:00,48.9,29.3,30.25,SW,226,4.0,4.9,46,0.00,,SKC,0.00,VWS V14.01,2013-02-17 03:04:00,
2013-02-16 21:06:00,49.1,29.2,30.25,SW,227,5.6,5.6,46,0.00,,SKC,0.00,VWS V14.01,2013-02-17 03:06:00,
2013-02-16 21:08:00,50.0,29.2,30.24,SW,221,4.0,4.3,44,0.00,,SKC,0.00,VWS V14.01,2013-02-17 03:08:00,
2013-02-16 21:10:00,49.1,29.2,30.25,SW,230,5.4,6.0,46,0.00,,SKC,0.00,VWS V14.01,2013-02-17 03:10:00,
2013-02-16 21:12:00,48.9,29.3,30.25,SW,224,6.0,6.0,46,0.00,,SKC,0.00,VWS V14.01,2013-02-17 03:12:00,
2013-02-16 21:13:00,50.0,29.4,30.24,SW,224,4.3,4.7,45,0.00,,SKC,0.00,VWS V14.01,2013-02-17 03:13:00,
2013-02-16 21:14:00,48.9,29.2,30.25,SW,225,6.9,6.9,46,0.00,,SKC,0.00,VWS V14.01,2013-02-17 03:14:00,
2013-02-16 21:16:00,48.9,29.0,30.25,SW,216,6.3,6.9,46,0.00,,SKC,0.00,VWS V14.01,2013-02-17 03:16:00,
2013-02-16 21:18:00,49.6,29.3,30.25,SW,231,3.4,4.7,45,0.00,,SKC,0.00,VWS V14.01,2013-02-17 03:18:00,
2013-02-16 21:20:00,49.1,29.2,30.25,SW,229,6.3,6.3,46,0.00,,SKC,0.00,VWS V14.01,2013-02-17 03:20:00,
2013-02-16 21:22:00,49.1,29.3,30.25,SW,227,6.7,6.7,46,0.00,,SKC,0.00,VWS V14.01,2013-02-17 03:22:00,
2013-02-16 21:23:00,49.5,29.7,30.25,SW,230,2.7,4.7,46,0.00,,SKC,0.00,VWS V14.01,2013-02-17 03:23:00,
2013-02-16 21:24:00,48.9,29.4,30.25,SW,233,4.7,6.7,47,0.00,,SKC,0.00,VWS V14.01,2013-02-17 03:24:00,
2013-02-16 21:26:00,48.7,29.3,30.25,SW,227,5.6,5.6,47,0.00,,SKC,0.00,VWS V14.01,2013-02-17 03:26:00,
2013-02-16 21:28:00,48.6,30.1,30.25,SW,230,1.8,4.7,49,0.00,,SKC,0.00,VWS V14.01,2013-02-17 03:28:00,
2013-02-16 21:30:00,48.4,29.4,30.25,SW,226,5.8,7.8,48,0.00,,SKC,0.00,VWS V14.01,2013-02-17 03:30:00,
2013-02-16 21:32:00,48.4,29.5,30.25,SW,226,6.3,6.3,48,0.00,,SKC,0.00,VWS V14.01,2013-02-17 03:32:00,
2013-02-16 21:33:00,48.2,29.9,30.25,WSW,240,2.2,4.7,49,0.00,,SKC,0.00,VWS V14.01,2013-02-17 03:33:00,
2013-02-16 21:38:00,47.8,30.0,30.25,SW,232,2.2,4.7,50,0.00,,SKC,0.00,VWS V14.01,2013-02-17 03:38:00,
2013-02-16 21:40:00,48.0,29.2,30.25,SW,224,6.3,6.3,48,0.00,,SKC,0.00,VWS V14.01,2013-02-17 03:40:00,
2013-02-16 21:42:00,48.0,29.3,30.25,SW,222,6.5,6.5,48,0.00,,SKC,0.00,VWS V14.01,2013-02-17 03:42:00,
2013-02-16 21:43:00,47.7,30.0,30.25,SW,224,2.2,4.7,50,0.00,,SKC,0.00,VWS V14.01,2013-02-17 03:43:00,
2013-02-16 21:44:00,48.0,29.1,30.25,SW,228,6.9,6.9,48,0.00,,SKC,0.00,VWS V14.01,2013-02-17 03:44:00,
2013-02-16 21:46:00,48.0,28.9,30.25,SW,224,7.4,7.4,47,0.00,,SKC,0.00,VWS V14.01,2013-02-17 03:46:00,
2013-02-16 21:48:00,47.8,29.8,30.24,WSW,239,2.7,4.7,49,0.00,,SKC,0.00,VWS V14.01,2013-02-17 03:48:00,
2013-02-16 21:50:00,48.0,29.2,30.25,SW,230,7.2,7.8,48,0.00,,SKC,0.00,VWS V14.01,2013-02-17 03:50:00,
2013-02-16 21:52:00,48.0,30.2,30.24,SW,230,3.6,4.7,50,0.00,,SKC,0.00,VWS V14.01,2013-02-17 03:52:00,
2013-02-16 21:54:00,48.2,28.9,30.25,SW,218,8.1,8.1,47,0.00,,SKC,0.00,VWS V14.01,2013-02-17 03:54:00,
2013-02-16 21:56:00,48.4,28.9,30.24,SW,216,8.7,8.7,47,0.00,,SKC,0.00,VWS V14.01,2013-02-17 03:56:00,
2013-02-16 21:57:00,48.4,29.6,30.25,SW,226,4.5,4.7,48,0.00,,SKC,0.00,VWS V14.01,2013-02-17 03:57:00,
2013-02-16 21:58:00,48.6,29.3,30.24,SW,222,6.9,8.7,47,0.00,,SKC,0.00,VWS V14.01,2013-02-17 03:58:00,
2013-02-16 22:00:00,48.6,29.0,30.24,SW,223,7.8,7.8,47,0.00,,SKC,0.00,VWS V14.01,2013-02-17 04:00:00,
2013-02-16 22:02:00,48.6,29.2,30.25,SW,225,4.5,4.9,47,0.00,,SKC,0.00,VWS V14.01,2013-02-17 04:02:00,
2013-02-16 22:04:00,48.9,29.3,30.25,SW,226,4.0,4.9,46,0.00,,SKC,0.00,VWS V14.01,2013-02-17 04:04:00,
2013-02-16 22:06:00,49.1,29.2,30.24,SW,227,5.6,5.6,46,0.00,,SKC,0.00,VWS V14.01,2013-02-17 04:06:00,
2013-02-16 22:08:00,49.1,29.2,30.24,SW,227,5.6,5.6,46,0.00,,SKC,0.00,VWS V14.01,2013-02-17 04:08:00,
2013-02-16 22:10:00,49.1,29.2,30.25,SW,230,5.4,6.0,46,0.00,,SKC,0.00,VWS V14.01,2013-02-17 04:10:00,
2013-02-16 22:12:00,49.1,29.2,30.25,SW,230,5.4,6.0,46,0.00,,SKC,0.00,VWS V14.01,2013-02-17 04:12:00,
2013-02-16 22:14:00,48.9,29.2,30.25,SW,225,6.9,6.9,46,0.00,,SKC,0.00,VWS V14.01,2013-02-17 04:14:00,
2013-02-16 22:16:00,48.9,29.0,30.25,SW,216,6.3,6.9,46,0.00,,SKC,0.00,VWS V14.01,2013-02-17 04:16:00,
2013-02-16 22:17:00,48.9,29.0,30.25,SW,216,6.3,6.9,46,0.00,,SKC,0.00,VWS V14.01,2013-02-17 04:17:00,
2013-02-16 22:18:00,49.1,29.2,30.25,SW,223,5.8,6.3,46,0.00,,SKC,0.00,VWS V14.01,2013-02-17 04:18:00,
2013-02-16 22:20:00,49.1,29.2,30.25,SW,229,6.3,6.3,46,0.00,,SKC,0.00,VWS V14.01,2013-02-17 04:20:00,
2013-02-16 22:22:00,49.1,29.2,30.25,SW,229,6.3,6.3,46,0.00,,SKC,0.00,VWS V14.01,2013-02-17 04:22:00,
2013-02-16 22:24:00,48.9,29.4,30.24,SW,233,4.7,6.7,47,0.00,,SKC,0.00,VWS V14.01,2013-02-17 04:24:00,
2013-02-16 22:26:00,48.7,29.3,30.24,SW,227,5.6,5.6,47,0.00,,SKC,0.00,VWS V14.01,2013-02-17 04:26:00,
2013-02-16 22:27:00,48.7,29.3,30.24,SW,227,5.6,5.6,47,0.00,,SKC,0.00,VWS V14.01,2013-02-17 04:27:00,
2013-02-16 22:28:00,48.4,29.3,30.24,SW,223,7.8,7.8,47,0.00,,SKC,0.00,VWS V14.01,2013-02-17 04:28:00,
2013-02-16 22:30:00,48.4,29.4,30.24,SW,226,5.8,7.8,48,0.00,,SKC,0.00,VWS V14.01,2013-02-17 04:30:00,
2013-02-16 22:32:00,48.4,29.4,30.24,SW,226,5.8,7.8,48,0.00,,SKC,0.00,VWS V14.01,2013-02-17 04:32:00,
2013-02-16 22:34:00,48.2,29.1,30.24,SW,226,5.8,6.3,47,0.00,,SKC,0.00,VWS V14.01,2013-02-17 04:34:00,
2013-02-16 22:36:00,48.2,29.6,30.24,SW,225,6.3,6.3,48,0.00,,SKC,0.00,VWS V14.01,2013-02-17 04:36:00,
2013-02-16 22:37:00,48.2,29.6,30.24,SW,225,6.3,6.3,48,0.00,,SKC,0.00,VWS V14.01,2013-02-17 04:37:00,
2013-02-16 22:38:00,48.0,29.2,30.24,SW,229,5.6,6.3,48,0.00,,SKC,0.00,VWS V14.01,2013-02-17 04:38:00,
2013-02-16 22:40:00,48.0,29.2,30.25,SW,224,6.3,6.3,48,0.00,,SKC,0.00,VWS V14.01,2013-02-17 04:40:00,
2013-02-16 22:42:00,48.0,29.2,30.25,SW,224,6.3,6.3,48,0.00,,SKC,0.00,VWS V14.01,2013-02-17 04:42:00,
2013-02-16 22:44:00,48.0,29.1,30.24,SW,228,6.9,6.9,48,0.00,,SKC,0.00,VWS V14.01,2013-02-17 04:44:00,
2013-02-16 22:46:00,48.0,28.9,30.24,SW,224,7.4,7.4,47,0.00,,SKC,0.00,VWS V14.01,2013-02-17 04:46:00,
2013-02-16 22:47:00,48.0,28.9,30.24,SW,224,7.4,7.4,47,0.00,,SKC,0.00,VWS V14.01,2013-02-17 04:47:00,
2013-02-16 22:48:00,48.0,29.0,30.24,SW,221,7.8,7.8,47,0.00,,SKC,0.00,VWS V14.01,2013-02-17 04:48:00,
2013-02-16 22:50:00,48.0,29.2,30.24,SW,230,7.2,7.8,48,0.00,,SKC,0.00,VWS V14.01,2013-02-17 04:50:00,
2013-02-16 22:52:00,48.0,29.2,30.24,SW,230,7.2,7.8,48,0.00,,SKC,0.00,VWS V14.01,2013-02-17 04:52:00,
2013-02-16 22:54:00,48.2,28.9,30.24,SW,218,8.1,8.1,47,0.00,,SKC,0.00,VWS V14.01,2013-02-17 04:54:00,
2013-02-16 22:56:00,48.4,28.9,30.24,SW,216,8.7,8.7,47,0.00,,SKC,0.00,VWS V14.01,2013-02-17 04:56:00,
2013-02-16 22:57:00,48.4,28.9,30.24,SW,216,8.7,8.7,47,0.00,,SKC,0.00,VWS V14.01,2013-02-17 04:57:00,
2013-02-16 22:58:00,48.6,29.3,30.24,SW,222,6.9,8.7,47,0.00,,SKC,0.00,VWS V14.01,2013-02-17 04:58:00,
2013-02-16 23:00:00,48.6,29.3,30.24,SW,222,6.9,8.7,47,0.00,,SKC,0.00,VWS V14.01,2013-02-17 05:00:00,
2013-02-16 23:02:00,48.6,29.1,30.24,SW,222,9.4,9.4,47,0.00,,SKC,0.00,VWS V14.01,2013-02-17 05:02:00,
2013-02-16 23:04:00,48.4,29.0,30.24,SW,218,8.7,9.4,47,0.00,,SKC,0.00,VWS V14.01,2013-02-17 05:04:00,
2013-02-16 23:05:00,48.4,29.0,30.24,SW,218,8.7,9.4,47,0.00,,SKC,0.00,VWS V14.01,2013-02-17 05:05:00,
2013-02-16 23:06:00,48.4,29.2,30.24,SW,223,9.4,9.4,47,0.00,,SKC,0.00,VWS V14.01,2013-02-17 05:06:00,
2013-02-16 23:08:00,48.2,29.4,30.24,SW,222,9.0,9.4,48,0.00,,SKC,0.00,VWS V14.01,2013-02-17 05:08:00,
2013-02-16 23:10:00,48.2,29.4,30.24,SW,222,9.0,9.4,48,0.00,,SKC,0.00,VWS V14.01,2013-02-17 05:10:00,
2013-02-16 23:12:00,48.0,29.4,30.24,SW,220,9.0,9.0,48,0.00,,SKC,0.00,VWS V14.01,2013-02-17 05:12:00,
2013-02-16 23:14:00,47.8,29.5,30.24,SW,217,9.4,9.4,49,0.00,,SKC,0.00,VWS V14.01,2013-02-17 05:14:00,
2013-02-16 23:15:00,47.8,29.5,30.24,SW,217,9.4,9.4,49,0.00,,SKC,0.00,VWS V14.01,2013-02-17 05:15:00,
2013-02-16 23:16:00,47.7,29.6,30.24,SW,221,8.5,9.4,49,0.00,,SKC,0.00,VWS V14.01,2013-02-17 05:16:00,
2013-02-16 23:18:00,47.7,29.7,30.24,SW,217,7.6,8.5,50,0.00,,SKC,0.00,VWS V14.01,2013-02-17 05:18:00,
2013-02-16 23:20:00,47.7,29.7,30.24,SW,217,7.6,8.5,50,0.00,,SKC,0.00,VWS V14.01,2013-02-17 05:20:00,
2013-02-16 23:22:00,47.5,29.8,30.24,SW,222,8.1,8.7,50,0.00,,SKC,0.00,VWS V14.01,2013-02-17 05:22:00,
2013-02-16 23:24:00,47.3,29.8,30.24,SW,224,8.3,8.3,50,0.00,,SKC,0.00,VWS V14.01,2013-02-17 05:24:00,
2013-02-16 23:25:00,47.3,29.8,30.24,SW,224,8.3,8.3,50,0.00,,SKC,0.00,VWS V14.01,2013-02-17 05:25:00,
2013-02-16 23:26:00,47.3,30.1,30.24,SW,220,8.3,8.3,51,0.00,,SKC,0.00,VWS V14.01,2013-02-17 05:26:00,
2013-02-16 23:28:00,47.1,30.0,30.24,SW,224,7.6,8.3,51,0.00,,SKC,0.00,VWS V14.01,2013-02-17 05:28:00,
2013-02-16 23:30:00,47.1,30.0,30.24,SW,224,7.6,8.3,51,0.00,,SKC,0.00,VWS V14.01,2013-02-17 05:30:00,
2013-02-16 23:32:00,46.9,30.3,30.23,SW,222,8.7,8.7,52,0.00,,SKC,0.00,VWS V14.01,2013-02-17 05:32:00,
2013-02-16 23:34:00,46.9,30.4,30.23,SW,220,9.8,9.8,52,0.00,,SKC,0.00,VWS V14.01,2013-02-17 05:34:00,
2013-02-16 23:35:00,46.9,30.4,30.23,SW,220,9.8,9.8,52,0.00,,SKC,0.00,VWS V14.01,2013-02-17 05:35:00,
2013-02-16 23:36:00,46.9,30.5,30.23,SW,222,9.2,9.8,52,0.00,,SKC,0.00,VWS V14.01,2013-02-17 05:36:00,
2013-02-16 23:38:00,46.8,30.5,30.23,SW,221,7.6,9.2,53,0.00,,SKC,0.00,VWS V14.01,2013-02-17 05:38:00,
2013-02-16 23:40:00,46.8,30.5,30.23,SW,221,7.6,9.2,53,0.00,,SKC,0.00,VWS V14.01,2013-02-17 05:40:00,
2013-02-16 23:42:00,46.6,30.8,30.23,SW,222,7.2,8.7,54,0.00,,SKC,0.00,VWS V14.01,2013-02-17 05:42:00,
2013-02-16 23:44:00,46.4,30.9,30.23,SW,224,6.9,7.2,54,0.00,,SKC,0.00,VWS V14.01,2013-02-17 05:44:00,
2013-02-16 23:45:00,46.4,30.9,30.23,SW,224,6.9,7.2,54,0.00,,SKC,0.00,VWS V14.01,2013-02-17 05:45:00,
2013-02-16 23:46:00,46.2,31.0,30.24,SW,226,6.7,6.9,55,0.00,,SKC,0.00,VWS V14.01,2013-02-17 05:46:00,
2013-02-16 23:48:00,46.2,31.2,30.24,SW,224,7.8,7.8,56,0.00,,SKC,0.00,VWS V14.01,2013-02-17 05:48:00,
2013-02-16 23:50:00,46.2,31.2,30.24,SW,224,7.8,7.8,56,0.00,,SKC,0.00,VWS V14.01,2013-02-17 05:50:00,
2013-02-16 23:52:00,46.2,31.5,30.23,SW,224,7.4,7.8,56,0.00,,SKC,0.00,VWS V14.01,2013-02-17 05:52:00,
2013-02-16 23:54:00,46.0,31.4,30.23,SW,223,6.9,7.4,56,0.00,,SKC,0.00,VWS V14.01,2013-02-17 05:54:00,
2013-02-16 23:55:00,46.0,31.4,30.23,SW,223,6.9,7.4,56,0.00,,SKC,0.00,VWS V14.01,2013-02-17 05:55:00,
2013-02-16 23:56:00,46.0,31.5,30.24,SW,231,6.0,6.9,56,0.00,,SKC,0.00,VWS V14.01,2013-02-17 05:56:00,
2013-02-16 23:58:00,45.9,31.5,30.24,SW,229,5.8,6.0,57,0.00,,SKC,0.00,VWS V14.01,2013-02-17 05:58:00,